[{"header": {"dx": 0.06612293990616946, "dy": 0.0552356325346848, "nx": 98, "ny": 59, "la1": 35.046912555036876, "la2": 31.78801023549047, "lo1": -121.43107172385933, "lo2": -114.95102361305473, "refTime": "2026041112", "parameterCategory": 1, "parameterNumber": 2}, "data": [-2.15, -2.79, -3.72, -4.27, -4.4, -3.88, -3.35, -3.07, -2.5, -2.4, -2.4, -1.86, -2.0, -2.0, -1.26, -0.95, -0.89, -1.2, -1.6, -1.24, -0.65, -0.0, -0.0, -0.0, -0.0, -0.0, -0.57, -1.86, -2.6, -3.58, -4.02, -4.02, -4.02, -3.58, -0.0, 3.47, 5.81, 5.75, 3.95, 1.34, -0.0, -0.0, -0.95, 0.89, 0.45, 1.2, 1.79, 2.24, 2.24, 2.24, 2.12, 1.9, 1.9, 0.54, -0.0, -0.0, 1.4, 2.79, 3.79, 3.48, 1.9, 0.0, -0.8, -1.49, -0.61, 0.0, 0.65, 2.21, 3.74, 5.31, 6.66, 6.98, 5.16, 2.12, 0.45, -0.0, -0.0, -0.45, -1.34, -1.7, -2.12, -2.4, -2.8, -2.8, -2.23, -1.9, -1.24, -0.54, 0.0, 1.16, 3.07, 2.88, 3.64, 3.64, 3.72, 3.79, 3.16, 3.14, -1.88, -1.88, -2.53, -3.35, -4.27, -4.27, -4.11, -3.6, -2.68, -2.15, -1.86, -2.4, -2.0, -1.6, -1.58, -1.58, -0.63, -1.2, -1.58, -1.49, -1.49, -0.65, -0.0, -0.0, -0.0, -0.0, -0.0, -0.8, -1.7, -2.68, -3.58, -3.58, -4.02, -3.58, -1.34, 3.58, 6.26, 5.75, 3.47, 1.34, -0.0, -0.0, 0.89, 0.45, 0.0, 0.89, 1.34, 1.34, 1.79, 1.79, 1.6, 1.26, 1.58, 0.57, -0.0, -0.0, 0.54, 1.4, 2.79, 3.79, 4.19, 2.12, 0.0, -0.85, -1.33, -0.79, 0.0, 1.33, 2.86, 4.66, 6.66, 5.77, 2.6, 0.0, 0.45, 0.45, 0.0, -0.45, -1.34, -1.7, -2.12, -2.4, -2.8, -2.8, -2.23, -1.9, -1.24, -0.54, 0.0, 1.16, 3.07, 2.88, 3.64, 3.64, 3.72, 3.79, 3.16, 3.14, -1.88, -1.2, -1.61, -2.53, -3.14, -3.88, -3.88, -3.6, -3.07, -2.5, -1.9, -1.9, -1.9, -1.0, -0.8, -1.26, -1.2, -1.6, -1.26, -1.58, -1.49, -1.49, -0.85, -0.0, 0.76, 0.65, -0.0, -0.0, -0.6, -1.2, -1.79, -2.24, -3.13, -3.13, -0.89, 3.58, 5.81, 4.85, 1.9, 0.45, 0.45, 0.45, 0.0, 0.0, 0.0, 0.0, 0.45, 0.89, 0.89, 0.89, 0.89, 0.89, 0.63, -0.0, -0.6, -0.57, -0.0, 0.65, 1.4, 2.79, 4.46, 4.19, 1.6, 0.0, -0.65, -0.66, 0.0, 0.66, 1.49, 3.22, 6.07, 5.75, 1.34, -0.45, 0.0, 0.0, 0.0, -0.89, -1.86, -2.4, -2.8, -2.91, -3.32, -3.32, -2.8, -2.8, -2.23, -0.71, 0.0, 2.3, 3.9, 3.79, 3.79, 3.79, 2.88, 2.51, 2.53, 2.53, -1.61, -1.2, -1.2, -1.88, -2.23, -2.84, -3.72, -3.35, -3.07, -2.68, -2.15, -1.9, -1.9, -0.6, -0.6, -0.6, -0.95, -2.0, -1.6, -1.24, -1.2, -1.49, -0.85, -0.65, -0.0, 0.76, 0.61, -0.0, -0.0, -0.0, -0.63, -1.6, -1.6, -1.79, 0.0, 3.13, 4.47, 3.13, 0.89, -1.34, 0.45, 1.26, 0.0, 0.45, 0.45, -0.0, 0.63, 0.89, 0.45, 0.45, 0.45, 0.0, 0.0, -0.0, -0.8, -0.99, -0.57, -0.0, 0.65, 1.88, 3.07, 4.01, 4.01, 1.58, 0.0, -0.76, -0.61, 0.0, 0.61, 1.88, 3.95, 4.47, 1.34, -1.34, -1.7, -0.95, -0.99, -1.9, -2.5, -3.45, -3.45, -3.32, -3.32, -4.24, -3.83, -2.5, -1.9, -0.65, 0.59, 3.79, 4.83, 3.79, 3.55, 2.73, 1.88, 1.24, 1.86, 2.4, -1.88, -1.2, -1.2, -1.88, -1.61, -2.23, -2.84, -3.14, -3.07, -2.68, -2.15, -2.23, -1.2, -0.6, -0.6, -0.6, -1.0, -1.0, -1.9, -1.58, -1.49, -0.76, -0.76, -0.0, -0.0, -0.0, 0.87, 0.65, -0.0, -0.0, -0.63, -1.79, -1.79, 0.89, 1.34, 2.68, 3.58, 1.34, -2.4, -1.0, 1.34, 1.6, 0.0, -0.0, -0.0, -0.0, 0.6, 0.95, 0.89, 0.0, 0.0, 0.0, -0.45, -0.63, -0.57, -0.71, -0.57, -0.0, -0.0, 0.65, 1.4, 2.4, 3.09, 2.82, 1.49, 0.0, -0.57, -0.65, 0.0, 0.95, 2.4, 4.09, 1.9, -1.2, -2.6, -2.24, -1.86, -2.5, -2.5, -3.72, -4.66, -4.0, -4.24, -4.4, -4.84, -3.79, -1.49, 0.0, 2.12, 4.71, 4.29, 3.64, 2.07, 0.6, 0.45, 0.45, 2.12, 2.6, -1.88, -1.4, -1.4, -1.88, -1.88, -1.84, -2.51, -2.84, -3.14, -3.07, -2.5, -1.86, -1.2, -0.95, -0.6, -0.6, -1.0, -1.0, -1.58, -2.0, -1.86, -1.9, -0.65, -0.0, -0.0, -0.0, 1.08, 1.19, 0.99, -0.0, -0.63, -3.13, -3.95, -2.6, 0.0, 2.6, 4.38, 1.79, -2.21, -1.2, 1.26, 1.58, -0.0, -0.0, -0.0, 0.57, 0.57, 0.95, 0.63, -0.0, -0.0, -0.0, -0.0, -0.6, -0.57, -0.57, -1.26, -1.26, -0.0, -0.0, -0.0, -0.0, 0.77, 2.25, 3.91, 3.8, 1.24, 0.0, 0.0, 0.54, 1.16, 2.79, 2.79, 0.54, -0.71, -1.24, -1.34, -1.58, -2.5, -3.07, -4.09, -5.09, -4.73, -4.46, -4.07, -3.69, -2.18, 0.0, 3.15, 3.27, 3.0, 2.88, 0.71, -1.7, -1.34, 0.6, 2.8, 2.91, -1.88, -1.16, -1.16, -1.16, -1.16, -1.61, -1.84, -2.23, -2.23, -2.51, -2.21, -1.9, -0.95, -0.6, -1.2, -0.95, -1.58, -1.26, -1.34, -1.79, -1.34, -1.79, -1.7, -1.24, -0.0, -0.0, 0.71, 1.0, 0.8, -0.0, -0.0, -2.68, -4.38, -3.58, 0.0, 2.41, 4.8, 3.2, -1.13, -1.74, -0.0, 1.27, -0.0, -0.0, 1.19, 1.6, 1.74, 0.8, -0.0, -0.0, -0.0, -0.0, -0.0, -0.0, -0.95, -1.27, -1.34, -1.34, -1.26, -0.65, -0.7, -1.63, -0.0, 0.74, 3.02, 5.99, 6.05, 3.72, 2.07, 2.07, 2.15, 1.88, 2.53, 2.5, 0.57, -0.57, -0.6, -0.89, -1.9, -2.53, -3.16, -4.36, -5.3, -4.46, -3.6, -2.69, -1.52, 0.0, 1.58, 2.18, 2.6, 0.63, -2.17, -2.68, -0.6, 1.0, 2.53, 3.07, -1.84, -1.16, -1.16, -1.16, -1.16, -1.16, -1.84, -1.8, -2.48, -2.23, -2.51, -2.23, -1.26, -0.57, -1.13, -0.8, -0.71, -1.26, 0.45, 0.45, 0.45, -0.0, -0.63, -0.8, -0.63, 0.45, 0.0, 0.45, 0.63, -0.0, 1.58, -0.0, -2.24, -2.84, 0.0, 2.4, 3.83, 1.66, -0.0, -0.0, -0.0, -0.0, -0.0, 1.3, 2.2, 2.73, 1.66, 0.79, -0.0, -0.0, -0.0, -0.0, 0.54, -0.0, -1.6, -1.79, -1.7, -1.34, -1.9, -2.3, -2.29, -2.29, -0.73, -0.0, 2.2, 4.71, 6.79, 6.14, 5.37, 3.16, 1.9, 2.12, 2.24, 2.68, 0.45, -1.34, -1.79, -1.79, -1.9, -1.16, -1.33, -3.55, -4.07, -4.2, -2.76, -2.01, -1.32, -0.76, 0.0, 1.49, 0.0, -3.14, -3.97, -2.4, 0.0, 1.16, 2.53, 2.79, -2.23, -1.84, -1.33, -1.13, -0.61, -0.61, -1.13, -1.8, -2.48, -2.48, -2.58, -2.84, -1.58, -1.24, -0.8, -0.0, -0.0, -0.0, -0.0, -0.0, -0.0, -0.0, -0.0, -0.0, -0.89, -0.45, 0.0, -0.63, 0.45, 0.63, 1.34, 2.8, 2.24, 0.0, 0.0, 1.72, 1.26, -0.0, -0.0, -0.0, 1.13, -0.0, -0.0, 1.6, 2.23, 1.83, 1.23, 1.1, 0.73, 0.73, -0.0, -0.0, -0.0, -0.0, -0.8, -1.79, -0.89, -1.34, -2.15, -3.22, -2.4, -2.53, -0.71, -0.0, 1.24, 3.16, 6.08, 7.69, 6.08, 4.22, 1.26, 1.2, 1.79, 1.2, -0.57, -2.86, -3.07, -2.5, -1.88, -0.53, 0.0, -1.27, -2.06, -2.83, -2.83, -2.18, -1.35, -0.66, -0.66, -1.8, -4.0, -5.32, -4.3, -2.53, 0.0, 1.84, 2.51, 2.84, -2.53, -1.84, -1.84, -1.33, -0.61, -0.61, -0.51, -1.13, -1.8, -2.23, -2.51, -2.84, -2.79, -2.5, -1.2, -0.95, -0.0, -0.0, -0.0, -0.0, -0.0, -0.0, 0.63, 0.45, -0.45, -0.89, -0.89, -1.34, 0.45, 0.89, 2.24, 1.79, 2.24, 1.9, 2.48, 2.4, -0.0, -0.88, -0.0, 1.13, 0.99, 1.74, 1.74, 2.21, 1.6, -0.0, -0.0, 0.88, 2.29, 2.53, 0.85, -0.0, -0.89, -0.89, -1.79, -1.79, -1.34, -2.0, -2.53, -2.6, -2.53, -1.6, -0.0, 0.45, 1.2, 2.17, 3.58, 6.67, 6.22, 3.04, -0.0, -0.0, 0.0, -0.95, -2.21, -3.16, -3.72, -4.01, -2.48, -1.33, 0.0, 0.61, 0.0, -0.64, -1.3, -2.53, -3.07, -3.07, -3.97, -4.88, -5.32, -4.77, -4.0, -2.5, 0.0, 2.15, 2.51, 2.51, -2.53, -2.53, -1.61, -1.16, -0.61, -0.61, -0.61, -1.13, -1.6, -1.84, -2.23, -2.53, -2.21, -2.5, -1.2, -0.63, -0.0, 0.95, 0.95, 1.34, 0.89, 0.89, 0.8, 0.89, 0.89, 0.45, -0.45, 0.45, 0.0, 0.95, 2.24, 2.24, 1.34, 2.24, 2.6, 1.23, -0.0, -0.0, 1.8, 2.53, 1.74, 1.74, 1.9, 1.13, -0.0, -0.0, -0.0, -0.0, 1.4, 2.41, 1.8, -0.0, -1.74, -2.24, -1.9, -1.9, -1.9, -2.68, -2.53, -2.47, -1.7, -1.6, -0.0, 0.95, 1.24, 1.84, 3.72, 5.46, 4.8, 1.2, -1.2, -2.23, -2.17, -2.68, -2.4, -1.9, -1.88, -2.98, -3.0, -2.35, -0.7, 0.0, 1.84, 1.33, 0.65, 0.0, -1.7, -3.07, -5.32, -4.47, -4.73, -4.0, -3.32, -1.7, 0.63, 1.9, 2.07, 1.8, -2.53, -2.21, -1.88, -1.88, -1.16, -0.61, -0.61, -0.61, -1.16, -1.84, -1.84, -2.21, -2.5, -2.4, -1.49, -0.95, -0.0, 0.95, 1.7, 2.12, 2.24, 2.68, 2.6, 2.68, 2.24, 2.24, 2.24, 1.79, 1.34, 1.34, 2.24, 2.24, 1.34, 0.89, -0.0, -0.0, 0.73, 1.49, 2.54, 2.6, 1.98, 1.6, 0.76, -0.0, -0.0, -0.0, -0.0, -0.0, 1.08, 1.19, -0.0, -0.76, -1.58, -0.78, -0.85, -1.0, -1.79, -2.68, -3.07, -2.4, -0.79, -0.88, 0.45, 1.2, 1.88, 2.21, 2.5, 2.8, 1.61, -0.6, -2.68, -3.32, -3.32, -2.6, -2.24, -0.89, 0.45, -0.8, -2.2, -2.72, -2.26, -0.7, 0.59, 2.84, 3.32, 3.58, 2.6, -0.63, -2.68, -3.58, -3.82, -3.07, -2.17, -0.45, 0.89, 1.86, 1.16, 1.27, -2.53, -2.21, -1.88, -1.88, -1.88, -1.16, -0.53, -0.53, -0.61, -1.16, -1.61, -1.88, -1.9, -1.86, -1.6, -0.95, -0.0, 0.95, 1.7, 2.4, 3.07, 3.07, 3.13, 3.58, 3.58, 4.02, 4.02, 4.02, 4.02, 3.58, 2.24, 2.24, 1.79, 0.89, 0.0, -0.63, -0.0, 1.26, 0.89, 1.58, 0.87, 0.88, -0.0, -0.0, -1.3, -1.23, -0.0, -0.0, -0.0, 1.1, -0.0, -2.23, -3.02, -1.45, -0.0, -0.0, 2.33, 1.14, -2.29, -3.15, -0.81, -0.0, -0.0, 0.45, 0.6, 0.61, 0.69, -0.0, -0.0, -0.0, -1.2, -3.51, -3.82, -2.86, -1.9, -0.63, -0.0, 0.45, 0.0, 0.0, -2.88, -2.35, 0.0, 1.13, 3.97, 5.64, 5.86, 2.4, -0.0, -1.79, -2.4, -2.17, -1.34, -0.45, 0.45, 0.95, 0.65, 0.0, -2.53, -1.88, -1.88, -1.88, -1.88, -1.2, -1.2, -0.65, -0.0, -0.53, -1.4, -1.61, -1.58, -1.26, -0.95, -0.63, -0.0, 0.63, 1.6, 2.0, 2.91, 3.39, 3.53, 4.02, 4.02, 4.47, 4.47, 4.92, 4.92, 4.47, 4.44, 2.68, 4.47, 1.2, 0.45, -0.0, -0.0, -0.0, 0.6, -0.0, -0.0, -0.0, -0.0, -1.23, -2.12, -2.12, -1.6, -1.23, -0.0, -0.0, -0.0, -2.54, -3.6, -2.54, -1.14, -0.0, 2.28, 3.21, -0.0, -2.44, -1.6, -0.0, -0.0, -1.05, -1.62, -1.52, -1.38, -0.0, 1.08, 4.65, 6.21, 0.73, -2.5, -3.07, -1.24, -0.0, -0.0, 0.45, 0.45, 0.45, 0.0, -1.55, -0.72, 0.0, 1.79, 3.07, 5.3, 4.36, 2.51, 1.0, -0.89, -2.24, -1.79, -0.89, -0.89, -0.63, -0.54, -0.59, -2.53, -1.88, -1.88, -1.88, -1.88, -1.61, -1.2, -0.54, -0.0, -0.0, -0.65, -1.2, -1.24, -1.26, -0.6, -0.63, -0.0, -0.0, 1.2, 2.12, 2.4, 3.32, 3.39, 3.98, 4.43, 4.47, 4.47, 4.92, 4.92, 4.89, 4.89, 4.77, 4.77, 3.82, 2.68, 1.4, -0.0, 0.85, 1.27, -0.0, -0.0, -0.0, -1.3, -1.14, -2.32, -2.32, -2.32, -2.32, -1.1, -0.0, -0.0, -2.26, -2.6, -2.73, -1.55, -0.0, -0.0, 1.47, 0.75, -1.11, -2.31, -2.33, -2.28, -2.23, -2.23, -2.23, -1.18, -0.0, 1.11, 1.95, 4.58, 7.93, 2.8, -1.7, -1.79, -0.89, -0.89, 0.45, 0.0, 0.89, 1.79, 1.26, 0.71, 0.6, 0.71, 0.66, 3.09, 4.6, 4.8, 5.59, 2.84, -0.0, -2.24, -2.12, -2.12, -2.4, -1.88, -1.88, -2.53, -2.21, -1.88, -1.88, -1.61, -1.2, -1.49, -1.24, -0.0, -0.0, -0.0, -0.54, -1.24, -1.26, -0.6, -0.0, -0.0, -0.0, 0.63, 1.6, 2.17, 2.63, 3.53, 3.98, 3.98, 4.44, 4.88, 4.92, 5.36, 5.33, 5.24, 5.24, 5.24, 4.77, 3.58, 1.24, 0.76, 0.87, 1.08, -0.0, -0.0, -0.0, -1.19, -1.19, -2.6, -2.16, -2.16, -3.76, -2.6, -2.16, -1.1, -1.14, -1.19, -2.48, -2.23, -2.73, -2.4, -1.23, -0.0, -0.0, -2.47, -3.68, -3.45, -3.22, -2.6, -3.22, -2.47, -0.0, 1.03, 1.05, 2.26, 7.15, 9.9, 1.86, -1.86, -1.7, -0.89, 0.0, 0.45, 1.34, 2.24, 3.13, 4.02, 4.47, 2.86, -0.0, -0.0, 2.2, 4.46, 6.01, 7.69, -0.0, -2.12, -1.86, -1.6, -2.24, -2.4, -2.4, -2.23, -1.88, -1.88, -1.61, -1.2, -1.2, -1.24, -1.24, -0.57, -0.0, -0.0, -0.0, -0.0, -0.57, -0.6, -0.0, -0.0, -0.0, 0.63, 1.34, 1.79, 2.24, 2.68, 3.53, 3.98, 4.43, 4.44, 4.89, 5.36, 5.36, 5.33, 5.7, 5.67, 5.7, 2.24, 1.58, 1.2, 2.2, 1.27, -0.0, -0.0, -0.0, -0.0, -1.66, -2.6, -2.6, -2.4, -2.4, -2.73, -3.16, -2.84, -1.6, -1.27, -2.48, -3.48, -3.79, -4.09, -3.6, -2.21, -1.41, -2.2, -3.79, -3.79, -3.48, -2.73, -2.41, -2.2, -1.19, -0.0, 3.35, 4.47, 7.73, 11.62, 6.79, 0.45, -0.6, 0.54, 1.86, 1.7, 2.17, 3.07, 4.24, 6.21, 6.11, 3.84, 0.66, -0.0, 2.79, 5.09, 7.47, 7.56, 2.91, -0.0, -0.0, -0.0, -0.0, 0.0, 0.0, -1.61, -1.61, -1.88, -1.61, -1.2, -1.24, -1.24, -1.24, -0.57, -0.0, 0.57, 0.57, -0.0, -0.0, -0.0, -0.0, -0.0, -0.0, 0.63, 1.34, 1.79, 2.24, 2.24, 2.63, 2.91, 3.39, 3.98, 4.44, 4.92, 5.36, 5.34, 5.78, 5.7, 5.67, 4.44, 2.12, 2.41, 2.4, 1.3, 1.19, -0.0, -0.0, -0.0, -1.3, -2.4, -2.4, -2.2, -2.2, -2.48, -1.8, -1.4, -1.2, -1.6, -2.48, -3.48, -4.09, -3.82, -4.02, -3.58, -2.84, -2.48, -2.73, -3.48, -3.49, -3.76, -2.53, -3.48, -2.23, -1.2, 3.72, 6.61, 9.36, 11.52, 9.54, 2.68, 1.16, 2.79, 6.44, 6.28, 3.82, 3.97, 6.07, 7.56, 2.51, 0.59, 0.61, 1.9, 2.84, 4.24, 4.87, 6.79, 4.93, 2.63, 1.34, 1.7, 1.86, 1.7, 1.7, -0.61, -1.16, -1.16, -1.2, -1.2, -1.24, -1.24, -0.71, -0.57, -0.0, -0.0, 0.8, 1.24, 0.71, -0.0, -0.0, -0.0, -0.0, 0.95, 1.34, 1.79, 1.79, 1.34, 2.0, 2.54, 3.39, 3.39, 2.6, 3.13, 5.36, 5.36, 5.81, 5.78, 5.26, 4.47, 3.82, 2.84, 2.22, 1.7, 1.3, 0.81, -0.0, -1.14, -2.32, -2.4, -2.48, -2.2, -2.2, -2.48, -1.27, -1.27, -1.13, -1.27, -2.48, -2.48, -2.84, -3.35, -4.24, -4.24, -4.09, -3.72, -3.48, -3.49, -4.01, -4.16, -4.29, -2.53, -2.6, -0.6, 1.49, 5.4, 8.94, 12.42, 11.4, 6.79, 3.32, 3.39, 7.28, 10.02, 9.11, 6.71, 6.26, 3.07, 0.54, 0.54, 1.26, 2.17, 3.07, 3.97, 3.58, 3.97, 5.64, 4.43, 2.68, 1.7, 2.4, 2.91, 2.91, -0.0, -0.61, -0.61, -0.53, -1.2, -1.0, -1.24, -0.71, -0.57, -0.0, -0.0, 0.8, 1.26, 1.24, 0.71, -0.0, -0.0, -0.0, -0.0, 1.79, 1.79, 1.34, 1.2, 1.26, 2.12, 1.79, 2.17, 4.3, 4.88, 5.33, 5.33, 5.81, 5.81, 5.81, 4.92, 4.19, 3.43, 2.86, 2.44, 1.73, 1.07, -0.0, -1.8, -2.32, -2.4, -3.22, -2.4, -2.4, -2.48, -2.23, -1.27, -1.41, -0.0, -1.41, -0.76, -1.49, -2.84, -2.12, -2.6, -4.09, -4.46, -4.65, -5.06, -5.93, -3.79, -3.49, -2.8, -1.7, 0.0, 1.88, 4.46, 8.14, 11.6, 13.41, 11.18, 5.77, 3.45, 4.93, 9.39, 8.91, 8.05, 4.47, 1.34, -0.63, -0.0, 1.7, 2.4, 2.68, 3.82, 3.53, 3.13, 4.02, 4.47, 3.13, 1.7, 2.4, 2.91, 2.91, -0.0, -0.0, -0.0, -0.0, -0.53, -0.65, -0.54, -0.71, -0.57, -0.0, -0.0, 0.6, 1.26, 1.58, 1.24, 0.71, 0.57, -0.0, 0.63, 1.34, 1.79, 1.6, 1.6, 1.7, 2.6, 3.07, 3.53, 4.3, 4.77, 5.24, 5.7, 5.78, 6.26, 6.26, 5.78, 5.09, 4.27, 3.16, 2.44, 1.7, 1.16, -0.0, -1.1, -2.23, -2.96, -3.45, -2.4, -2.2, -2.48, -2.23, -1.27, -1.27, -0.0, -0.0, -0.0, -0.76, -0.8, -1.2, -4.24, -4.29, -4.74, -5.93, -5.93, -5.75, -4.22, -3.74, -2.17, -1.34, 0.45, 2.24, 4.47, 8.36, 10.75, 12.37, 11.66, 8.4, 4.94, 5.37, 6.07, 7.56, 8.49, 6.26, 2.63, 1.2, 0.8, 1.7, 2.15, 2.53, 3.6, 4.3, 3.58, 3.53, 3.58, 2.63, 1.7, 1.7, 2.4, 2.4, 1.16, 0.61, -0.0, -0.0, -0.0, -0.0, -0.0, -0.0, -0.0, -0.0, -0.0, 0.6, 1.26, 1.26, 1.24, 1.24, 1.24, 1.26, 1.2, 1.34, 1.79, 1.7, 1.7, 2.17, 2.63, 3.07, 3.53, 4.3, 4.77, 5.24, 5.78, 6.23, 6.26, 6.26, 6.23, 5.7, 5.09, 4.0, 2.86, 1.7, 1.14, 0.53, -0.56, -1.81, -2.89, -2.8, -2.4, -2.2, -2.2, -2.73, -1.41, -1.41, -1.08, -0.0, -0.0, -0.0, -0.87, -0.85, -3.16, -4.43, -4.74, -5.43, -4.81, -4.6, -3.83, -3.6, -1.7, -0.89, -0.0, 1.13, 2.99, 7.81, 7.98, 4.8, 2.84, 2.73, 3.2, 3.33, 4.14, 4.74, 6.07, 6.71, 5.32, 3.82, 3.51, 3.07, 2.91, 3.32, 4.02, 5.2, 4.47, 3.58, 3.13, 2.24, 1.34, 1.2, 1.7, 1.7, 1.88, 1.88, 1.16, 0.61, -0.0, -0.0, -0.0, -0.0, -0.0, -0.0, -0.0, 0.6, 1.26, 1.26, 1.58, 1.24, 1.24, 1.86, 1.86, 1.7, 1.7, 1.7, 1.79, 2.24, 2.63, 3.07, 3.53, 3.98, 4.44, 4.89, 5.34, 5.81, 6.26, 6.26, 6.71, 6.23, 5.57, 4.17, 3.48, 2.4, 2.36, 1.12, 0.56, -0.58, -1.69, -1.73, -2.32, -2.32, -2.32, -2.16, -2.2, -1.19, -1.19, -1.19, -1.3, -1.23, -1.6, -1.6, -1.13, -2.84, -5.15, -4.81, -4.19, -4.22, -3.58, -2.84, -0.6, 0.45, -0.63, -1.4, -0.0, 5.4, 2.91, -2.84, -1.4, 0.0, 1.35, 2.18, 2.12, 2.75, 3.38, 4.24, 4.92, 4.87, 4.43, 3.97, 3.97, 4.02, 4.43, 4.47, 4.88, 4.24, 2.91, 2.24, 1.34, 0.89, 0.89, 0.89, 2.68, 2.68, 1.88, 1.16, 0.61, 0.61, 0.61, -0.0, -0.0, -0.0, -0.0, 0.6, 1.26, 1.26, 1.86, 1.86, 1.86, 1.86, 2.23, 2.4, 2.12, 1.7, 1.79, 2.24, 2.68, 3.07, 3.53, 3.98, 4.44, 4.92, 5.36, 5.81, 6.26, 6.26, 6.26, 6.26, 5.99, 5.08, 4.29, 3.79, 3.47, 2.77, 1.73, 0.58, -0.57, -1.14, -2.21, -2.21, -2.09, -2.26, -2.32, -2.4, -2.2, -2.4, -2.4, -2.32, -3.11, -2.35, -1.23, -2.0, -3.84, -4.19, -3.84, -3.16, -3.16, -2.41, -0.6, -0.0, -1.26, -2.91, -2.91, 12.62, 13.23, 1.7, -3.39, 0.0, 1.08, 1.1, 1.95, 1.32, 2.06, 2.73, 3.14, 3.87, 3.97, 3.98, 4.43, 3.98, 3.58, 2.79, 5.05, 5.01, 5.36, 2.8, 1.34, 0.0, 0.0, 0.0, 3.39, 3.39, 2.21, 1.61, 1.84, 1.16, 1.16, 0.53, 0.65, 0.54, 0.57, 0.8, 1.26, 1.26, 1.86, 1.86, 1.86, 1.86, 2.4, 2.4, 2.4, 2.17, 2.17, 2.24, 2.68, 3.07, 3.53, 3.98, 4.47, 4.47, 4.92, 5.36, 5.78, 6.23, 6.23, 6.26, 6.04, 5.75, 5.29, 5.01, 4.75, 4.08, 2.92, 1.71, 0.54, -0.57, -1.69, -1.69, -2.23, -2.4, -2.96, -3.45, -2.6, -2.6, -2.4, -3.49, -4.74, -3.47, -1.23, -0.0, -2.48, -4.15, -3.58, -3.16, -2.68, -1.26, -0.57, -1.24, -2.5, -3.58, -0.63, 7.11, 14.17, 10.91, 2.15, 0.0, 0.0, 0.65, 1.05, 0.0, 0.69, 1.36, 1.94, 3.16, 3.45, 3.6, 3.6, 2.63, 1.58, 1.23, 3.8, 6.32, 7.23, 6.07, 2.0, 0.89, 0.0, 0.0, 4.44, 4.44, 3.2, 2.53, 2.23, 1.84, 1.61, 1.16, 1.2, 1.2, 0.71, 0.99, 1.26, 1.86, 1.86, 1.86, 1.86, 2.0, 2.4, 2.4, 2.6, 2.6, 2.6, 2.6, 2.68, 3.13, 3.58, 4.02, 4.47, 4.47, 4.92, 5.36, 5.34, 5.78, 5.78, 6.26, 5.88, 5.86, 5.93, 5.98, 5.69, 4.73, 3.6, 2.89, 1.71, -0.0, -0.57, -1.12, -1.78, -1.69, -2.37, -2.4, -2.99, -3.2, -2.32, -2.4, -3.49, -4.43, -4.43, -1.14, -0.0, -2.23, -3.16, -3.07, -2.68, -1.74, -0.8, -1.2, -3.32, -3.13, -0.89, 3.82, 8.32, 13.46, 11.76, 2.53, 0.0, 0.0, 0.0, 0.0, 0.0, 0.0, 1.3, 1.8, 2.53, 2.5, 2.4, 1.86, 1.33, 1.35, 3.69, 6.92, 8.23, 7.54, 5.31, 3.07, 1.86, 1.86, 4.89, 4.89, 4.11, 3.14, 2.23, 2.23, 2.23, 1.61, 1.4, 1.2, 1.2, 1.24, 1.58, 1.86, 1.86, 2.6, 2.6, 2.6, 2.6, 2.6, 2.6, 2.6, 2.6, 2.63, 3.13, 3.58, 4.02, 4.47, 4.47, 4.47, 4.92, 4.88, 4.88, 5.33, 5.36, 5.7, 5.6, 5.86, 5.93, 6.23, 5.69, 4.73, 3.6, 2.89, 2.37, 1.16, -0.0, -0.56, -1.18, -1.12, -1.12, -1.67, -2.33, -2.86, -2.51, -1.6, -2.6, -4.11, -3.84, -3.16, -1.3, -0.81, -2.4, -2.53, -2.2, -0.99, -1.9, -1.9, -1.61, -1.58, -0.8, 0.45, 3.22, 6.88, 11.53, 11.83, 3.07, -0.57, 0.0, 0.45, 0.0, 0.0, 0.0, 0.59, 0.53, 1.26, 1.49, 1.84, 2.2, 2.2, 3.12, 6.35, 9.3, 9.27, 7.85, 6.9, 5.2, 5.2, 5.34, 5.34, 4.77, 3.35, 3.14, 2.84, 2.84, 2.23, 1.61, 1.88, 1.61, 1.9, 1.86, 1.86, 2.17, 2.6, 2.6, 2.6, 2.63, 2.63, 2.6, 2.6, 2.6, 2.68, 3.13, 3.58, 4.02, 4.47, 4.92, 4.92, 4.89, 4.88, 4.88, 4.89, 5.36, 5.09, 5.47, 5.49, 5.86, 6.15, 5.65, 4.75, 3.4, 2.92, 2.92, 2.4, 1.16, -0.0, -0.0, -0.59, -0.56, -1.11, -1.16, -2.28, -2.83, -2.4, -2.12, -2.32, -3.35, -3.84, -3.07, -2.4, -2.4, -2.53, -0.98, -1.41, -1.7, -2.24, -1.7, -0.57, -0.0, 0.45, 0.0, 0.63, 4.81, 13.1, 14.64, 3.32, -0.63, 0.0, 0.89, 2.07, 1.27, 0.0, 0.0, 0.63, 1.16, 3.9, 4.56, 4.36, 3.79, 5.09, 9.9, 10.65, 9.6, 8.8, 7.73, 7.73, 5.81, 5.81, 5.24, 4.11, 3.72, 3.43, 3.16, 2.84, 2.23, 1.88, 1.88, 1.9, 2.15, 2.4, 2.6, 2.6, 2.63, 3.07, 3.07, 3.07, 3.07, 2.63, 2.68, 2.68, 3.13, 3.58, 4.02, 4.47, 4.92, 5.36, 4.89, 4.89, 4.88, 4.92, 4.89, 5.09, 5.08, 5.21, 5.75, 5.86, 5.59, 4.75, 3.42, 2.2, 2.35, 2.96, 1.63, 0.54, -0.0, -0.0, -0.55, -0.55, -0.59, -1.16, -2.28, -2.83, -3.14, -3.17, -3.22, -3.79, -3.79, -3.35, -3.35, -2.0, -1.49, -1.66, -1.9, -2.68, -3.13, -2.12, -0.0, 0.8, 0.0, -0.73, 2.07, 9.11, 14.13, 13.78, 3.97, 0.63, 0.45, 2.4, 3.13, 3.6, 2.68, 3.14, 4.07, 5.06, 6.06, 6.08, 5.09, 5.46, 7.46, 10.09, 10.26, 10.0, 8.93, 8.93, 5.81, 5.81, 5.33, 4.6, 3.88, 3.64, 3.43, 3.16, 2.84, 2.53, 2.21, 2.5, 2.5, 2.8, 2.63, 2.63, 2.63, 3.07, 3.07, 3.07, 3.07, 3.07, 3.13, 3.13, 3.58, 3.58, 4.02, 4.92, 5.36, 5.36, 5.33, 5.33, 4.89, 4.92, 4.89, 5.24, 4.9, 5.31, 5.6, 5.75, 5.86, 5.06, 4.1, 3.42, 2.92, 3.2, 2.35, 1.71, 1.14, -0.0, -0.0, -0.56, -0.0, -0.59, -1.65, -2.8, -3.49, -3.52, -3.9, -4.54, -4.19, -4.19, -3.22, -2.53, -3.22, -2.88, -1.47, -0.65, -2.6, -3.07, -0.57, 3.07, 3.58, 0.78, 2.31, 6.14, 9.49, 11.62, 12.42, 5.81, 1.49, 2.24, 4.37, 6.51, 8.27, 7.54, 7.28, 6.9, 6.9, 6.9, 5.72, 6.07, 7.46, 9.2, 10.27, 10.38, 9.96, 9.96, 5.81, 5.81, 5.34, 4.8, 4.6, 4.27, 4.0, 3.78, 3.43, 2.84, 2.53, 2.53, 2.68, 2.91, 2.91, 3.07, 3.07, 3.07, 3.07, 3.09, 3.09, 3.53, 3.58, 3.58, 3.58, 3.58, 4.02, 4.47, 5.36, 5.36, 5.34, 5.33, 5.33, 4.92, 4.92, 5.24, 5.51, 5.4, 5.6, 5.75, 5.49, 5.06, 4.75, 4.08, 3.4, 3.4, 3.09, 2.89, 1.69, 0.56, -0.0, -0.0, -0.0, -0.56, -1.11, -2.28, -2.93, -3.49, -4.05, -4.81, -4.8, -4.15, -2.97, -3.22, -4.11, -4.46, -3.72, -0.0, 1.14, -1.2, -2.54, 0.76, 6.44, 5.81, 3.79, 3.88, 5.3, 6.94, 9.81, 10.73, 4.43, 1.7, 3.76, 6.79, 9.6, 11.12, 11.33, 9.18, 8.06, 6.4, 4.73, 4.66, 5.6, 7.98, 9.68, 10.1, 10.1, 10.1, 5.81, 5.81, 5.81, 5.24, 4.6, 4.4, 4.0, 4.0, 3.78, 3.43, 2.84, 2.79, 2.79, 3.07, 3.39, 3.39, 3.09, 3.07, 3.09, 3.53, 3.53, 3.53, 3.53, 3.58, 3.58, 4.02, 4.02, 4.47, 5.36, 4.92, 5.36, 5.36, 5.33, 4.92, 5.36, 5.34, 5.57, 5.81, 5.6, 5.75, 5.29, 5.06, 5.08, 4.47, 4.08, 3.64, 3.83, 3.37, 2.33, 1.18, 0.59, -0.0, -0.0, -0.0, -0.59, -1.73, -2.28, -2.8, -3.52, -4.12, -4.22, -3.47, -2.6, -2.86, -3.49, -4.46, -5.05, -2.21, 1.14, 2.48, -1.26, -1.79, 4.09, 10.21, 6.26, 2.3, 1.4, 2.6, 6.21, 8.91, 6.71, 2.8, 2.15, 6.41, 9.81, 11.24, 12.14, 11.71, 9.11, 6.36, 3.45, 2.5, 3.32, 5.94, 8.97, 9.4, 9.4, 9.4, 6.26, 6.26, 5.81, 5.34, 5.09, 4.8, 4.55, 4.55, 4.07, 3.78, 3.43, 2.84, 3.14, 3.6, 3.6, 3.82, 3.39, 3.82, 3.82, 3.53, 3.53, 3.53, 3.97, 3.98, 4.02, 4.02, 4.02, 4.47, 4.92, 5.36, 4.92, 5.36, 5.36, 5.81, 5.81, 5.78, 6.04, 6.3, 6.0, 5.75, 5.01, 5.06, 5.08, 4.73, 4.46, 4.08, 3.83, 2.89, 2.33, 1.75, 1.18, 1.18, 0.56, -0.0, -0.55, -1.15, -1.71, -2.39, -2.8, -3.37, -3.49, -2.21, -3.48, -2.41, -2.84, -3.79, -4.46, -2.8, -1.6, 1.27, 0.85, 0.45, 1.79, 8.33, 11.66, 4.47, 0.95, 1.79, 4.47, 7.6, 6.26, 2.91, 2.15, 3.32, 8.3, 10.66, 12.01, 11.49, 8.82, 3.82, 1.9, 1.26, 2.12, 3.53, 6.67, 9.11, 8.71, 8.71, 6.26, 6.26, 6.26, 5.78, 5.24, 4.8, 4.55, 4.29, 4.29, 4.07, 3.78, 3.43, 3.72, 3.35, 3.6, 3.6, 3.7, 3.87, 3.87, 3.87, 3.82, 3.82, 3.98, 3.98, 3.98, 4.02, 4.47, 4.47, 4.92, 5.36, 5.81, 5.81, 6.26, 6.26, 6.26, 6.23, 6.04, 6.1, 5.75, 5.49, 5.01, 5.06, 5.08, 4.73, 4.46, 4.46, 4.05, 2.89, 2.19, 1.75, 1.75, 1.75, 1.11, 0.59, -0.0, -1.15, -1.69, -1.79, -2.25, -2.3, -3.76, -3.22, -3.49, -4.43, -3.16, -3.48, -4.11, -3.84, -2.23, -0.0, 1.66, 2.21, 3.13, 6.26, 11.06, 10.45, 4.02, 2.24, 5.36, 7.6, 6.71, 3.07, 2.17, 2.6, 3.97, 8.92, 10.27, 10.22, 6.11, 3.07, 1.9, 1.26, 1.79, 2.68, 4.02, 8.02, 8.46, 8.46, 6.71, 6.71, 6.71, 6.23, 5.7, 4.9, 4.55, 4.65, 4.65, 4.07, 4.07, 4.0, 4.0, 3.88, 3.88, 4.11, 4.11, 4.11, 4.3, 4.3, 3.87, 3.87, 3.87, 3.98, 4.43, 4.44, 4.47, 4.47, 4.92, 5.36, 5.81, 6.23, 6.26, 6.26, 6.23, 6.16, 6.47, 6.3, 5.75, 5.49, 5.01, 5.35, 4.75, 4.47, 4.73, 4.46, 3.6, 2.86, 2.33, 1.67, 1.67, 1.75, 1.16, 1.16, -0.0, -0.58, -1.14, -1.69, -1.79, -1.71, -3.45, -4.74, -4.43, -4.43, -4.43, -5.01, -3.84, -4.19, -2.53, -0.0, 1.41, 3.49, 5.2, 6.26, 7.6, 9.33, 7.98, 5.16, 6.71, 7.15, 4.92, 1.79, 0.63, 0.95, 2.23, 5.99, 6.94, 3.82, 3.07, 2.53, 2.5, 2.0, 1.79, 2.24, 3.07, 3.53, 6.71, 6.71, 6.68, 6.68, 6.71, 6.26, 5.7, 5.31, 5.08, 4.65, 4.65, 4.65, 4.07, 4.07, 4.37, 4.55, 4.0, 4.27, 4.11, 4.11, 4.11, 4.11, 4.11, 3.7, 3.87, 4.3, 4.44, 4.44, 4.88, 4.92, 4.92, 5.36, 5.36, 5.78, 6.23, 6.23, 6.23, 6.16, 6.04, 6.3, 6.0, 5.49, 5.65, 5.35, 4.47, 4.47, 4.47, 4.05, 3.37, 2.86, 2.86, 2.19, 1.75, 1.11, 1.16, 1.16, 0.58, -0.0, -0.57, -1.14, -1.69, -1.79, -2.3, -3.76, -5.01, -3.22, -3.58, -4.65, -3.2, -3.83, -2.21, -1.66, -0.0, 2.6, 7.07, 7.21, 4.92, 3.97, 7.03, 8.88, 9.49, 7.33, 2.6, -0.0, -0.99, -0.0, 0.53, 1.88, 2.21, 2.53, 2.53, 3.07, 3.32, 3.07, 2.68, 2.68, 3.07, 3.51, 4.47, 4.47, 6.68, 6.68, 6.71, 6.71, 5.79, 5.57, 5.08, 4.84, 4.65, 4.65, 4.65, 4.29, 4.65, 4.65, 4.55, 4.55, 4.27, 4.27, 4.4, 4.52, 4.11, 4.11, 4.11, 4.3, 4.34, 4.77, 4.88, 4.89, 5.33, 5.33, 5.34, 5.78, 5.78, 6.23, 6.23, 6.16, 6.04, 6.3, 6.0, 5.75, 5.29, 5.35, 4.75, 4.95, 4.1, 4.08, 3.37, 2.86, 2.86, 2.19, 1.18, 1.11, 1.16, 1.16, 1.1, -0.0, -0.0, -1.14, -1.69, -1.69, -1.71, -2.4, -4.65, -3.22, -2.21, -3.79, -2.86, -3.48, -3.16, -2.53, -0.88, 1.6, 7.21, 9.1, 2.68, 0.8, 2.24, 7.71, 10.95, 8.76, 3.49, -0.0, -0.65, -0.0, -0.0, 1.13, 2.51, 2.84, 3.14, 3.6, 3.82, 3.97, 3.58, 3.95, 3.51, 3.82, 4.24, 4.41, 7.13, 7.13, 7.13, 6.71, 6.26, 5.57, 5.08, 4.84, 5.21, 5.01, 4.65, 5.01, 4.65, 4.65, 4.65, 4.65, 4.55, 4.55, 4.4, 4.4, 4.27, 3.88, 4.11, 4.11, 4.77, 4.77, 4.8, 5.24, 5.33, 5.34, 5.78, 5.78, 5.78, 5.78, 5.7, 6.16, 6.16, 5.81, 5.6, 5.75, 5.29, 5.35, 4.75, 4.56, 4.47, 4.08, 3.4, 2.89, 2.86, 2.19, 1.18, 1.11, 1.11, 1.16, 1.16, 0.58, -0.0, -0.57, -1.69, -1.69, -1.79, -1.78, -2.32, -2.41, -2.15, -3.49, -4.19, -2.98, -2.4, -2.53, -1.7, -0.0, 5.72, 9.3, 4.09, -0.73, 0.0, 3.83, 7.6, 6.11, 2.84, 1.4, 0.65, -0.0, -0.0, 2.48, 4.12, 4.4, 4.24, 4.73, 4.43, 4.47, 4.43, 5.59, 5.16, 4.93, 4.93, 4.24, 7.13, 7.13, 7.58, 7.13, 6.26, 5.57, 5.08, 5.21, 4.94, 4.94, 4.94, 4.94, 5.01, 4.65, 4.65, 4.65, 4.65, 4.55, 4.55, 4.8, 4.4, 4.27, 4.27, 4.52, 4.6, 4.6, 5.24, 5.24, 5.26, 5.78, 5.78, 5.34, 5.26, 5.7, 5.7, 5.7, 6.14, 5.81, 5.6, 5.58, 5.29, 5.35, 5.06, 4.75, 4.71, 4.08, 3.6, 3.56, 2.86, 2.3, 1.11, 1.11, 1.11, 1.11, 1.16, 0.58, -0.0, -0.57, -1.18, -1.76, -2.33, -2.28, -2.32, -2.6, -3.49, -4.43, -2.15, -2.41, -2.2, -2.53, -2.2, -0.82, 2.26, 7.9, 9.17, 0.6, -2.35, 0.0, 2.15, 2.17, 1.84, 2.51, 2.21, 0.71, 0.54, 2.84, 5.6, 6.55, 6.22, 6.71, 6.71, 6.66, 6.55, 7.21, 6.4, 5.43, 5.05, 4.93, 7.51, 7.51, 7.58, 7.13, 6.26, 5.7, 5.4, 5.21, 4.94, 5.29, 5.29, 4.94, 4.94, 4.71, 5.01, 4.65, 4.65, 4.65, 4.55, 4.55, 4.8, 4.4, 4.27, 4.27, 4.6, 4.6, 5.09, 5.24, 5.7, 5.7, 5.7, 5.24, 5.24, 5.7, 5.7, 5.7, 5.57, 5.4, 5.21, 5.21, 5.29, 5.01, 5.06, 4.75, 4.08, 4.12, 3.37, 3.35, 2.83, 2.3, 1.73, 1.11, 1.18, 1.18, 1.16, 0.58, -0.0, -0.57, -1.18, -1.67, -2.33, -2.25, -2.06, -2.32, -2.4, -2.4, -1.61, -3.49, -2.15, -2.2, -2.4, -0.82, 1.23, 5.72, 8.85, 6.95, 0.0, -0.66, -0.65, -0.0, 1.33, 5.09, 5.05, 2.4, 1.7, 3.07, 5.32, 7.6, 8.05, 8.01, 8.36, 7.76, 7.47, 7.47, 6.4, 4.84, 3.83, 3.83, 7.51, 7.51, 7.51, 7.13, 6.26, 6.16, 5.81, 5.21, 5.29, 5.29, 5.29, 5.29, 5.29, 4.94, 4.71, 5.01, 4.65, 4.93, 5.08, 4.55, 4.55, 4.55, 4.4, 4.4, 4.6, 4.6, 5.09, 5.7, 5.7, 5.7, 5.7, 5.09, 5.09, 5.7, 5.7, 5.7, 5.51, 5.08, 5.21, 5.58, 5.29, 5.01, 5.06, 4.75, 4.08, 4.05, 3.56, 3.52, 2.83, 2.17, 1.65, 1.65, 1.75, 1.18, 1.16, 0.58, -0.0, -0.0, -0.6, -1.12, -1.74, -2.33, -2.33, -2.49, -2.4, -2.4, -2.4, -2.6, -2.07, -2.73, -2.4, -1.6, 1.23, 3.33, 5.72, 8.85, 9.66, 3.32, 0.0, -0.0, 2.84, 7.2, 8.67, 6.55, 3.13, 3.07, 5.32, 7.92, 8.36, 8.24, 8.67, 7.98, 6.54, 5.34, 2.5, 2.21, 2.21, 2.21, 7.51, 7.51, 7.07, 7.13, 6.71, 6.16, 5.81, 5.6, 5.29, 5.29, 5.29, 5.29, 5.29, 5.29, 4.94, 5.21, 4.84, 5.08, 5.08, 4.55, 4.55, 4.55, 4.8, 4.4, 4.6, 4.6, 5.09, 5.51, 5.57, 5.57, 5.57, 5.51, 5.57, 5.7, 5.7, 5.51, 5.31, 5.21, 5.21, 5.29, 5.29, 5.35, 4.75, 4.47, 4.05, 3.37, 3.35, 2.86, 2.3, 2.3, 1.75, 1.75, 1.75, 1.11, 0.59, 0.58, -0.0, -0.0, -0.56, -1.17, -1.74, -2.3, -2.25, -2.21, -2.16, -2.4, -2.6, -3.22, -2.2, -2.98, -1.55, -0.76, -0.0, 3.11, 5.06, 7.06, 9.62, 11.28, 8.32, 5.43, 5.43, 7.56, 8.97, 7.76, 4.92, 3.6, 5.34, 6.54, 7.47, 7.98, 7.06, 5.86, 3.82, 2.12, 1.86, 1.9, 1.9, 1.9, 7.51, 7.51, 7.07, 7.13, 6.71, 6.23, 6.04, 5.6, 5.49, 5.49, 5.35, 5.01, 5.29, 5.29, 5.29, 5.21, 5.21, 5.08, 5.08, 4.55, 4.55, 4.55, 4.8, 4.8, 4.4, 5.02, 5.09, 5.51, 5.57, 5.57, 5.57, 5.57, 5.7, 5.7, 5.09, 4.9, 5.08, 5.21, 5.21, 5.29, 5.01, 5.06, 4.75, 4.47, 4.05, 3.37, 3.35, 2.86, 2.33, 2.33, 2.19, 2.19, 1.75, 1.11, 0.59, 0.55, -0.0, -0.0, -0.56, -1.17, -1.74, -1.74, -2.33, -2.19, -2.26, -1.05, -2.16, -2.2, -3.22, -3.22, -2.32, -0.88, -0.0, 1.7, 4.01, 5.06, 7.02, 9.27, 9.85, 9.85, 9.62, 8.49, 7.06, 6.07, 3.58, 4.09, 5.09, 5.69, 6.07, 5.05, 6.36, 2.24, 1.79, 1.6, 1.58, 1.2, 1.2, 1.2, 7.07, 7.07, 7.06, 7.13, 6.71, 6.68, 6.04, 5.6, 5.75, 5.49, 5.59, 5.86, 5.49, 5.49, 5.49, 5.21, 5.21, 5.47, 5.08, 5.31, 4.55, 4.8, 4.8, 4.8, 4.8, 5.02, 5.09, 5.51, 5.57, 5.57, 5.57, 5.57, 5.57, 5.09, 4.9, 5.08, 4.84, 5.21, 4.94, 5.29, 5.01, 4.75, 4.47, 4.08, 4.05, 3.37, 2.89, 2.71, 2.86, 2.33, 2.33, 2.33, 1.75, 1.11, 0.56, 0.59, -0.0, -0.0, -0.56, -1.17, -1.17, -1.74, -1.76, -2.25, -2.4, -2.32, -2.16, -1.49, -2.2, -2.98, -2.6, -0.81, -0.0, 0.81, 2.6, 3.64, 5.3, 7.27, 7.9, 7.73, 10.75, 11.52, 6.44, 2.6, 2.17, 2.86, 4.12, 5.09, 3.49, 4.4, 2.68, 1.2, 1.34, 1.6, 1.24, 1.2, 1.2, 1.2, 7.06, 7.06, 7.06, 6.68, 6.71, 6.71, 6.16, 5.6, 5.75, 5.86, 5.86, 5.86, 5.86, 5.49, 5.75, 5.75, 5.21, 5.47, 5.08, 5.31, 4.8, 4.8, 4.8, 4.8, 4.8, 4.8, 4.9, 5.51, 5.57, 5.57, 5.57, 5.57, 5.09, 4.9, 5.08, 4.84, 5.21, 5.21, 4.94, 5.29, 4.74, 4.75, 4.75, 4.08, 3.83, 3.6, 2.89, 2.89, 2.89, 2.89, 2.21, 2.33, 1.75, 1.11, 1.11, 0.59, -0.0, -0.0, -0.56, -1.12, -1.12, -1.12, -1.67, -2.35, -2.33, -2.12, -2.32, -2.16, -3.49, -2.68, -3.07, -1.7, -0.76, -0.0, 1.6, 2.47, 4.03, 6.24, 6.14, 6.14, 8.66, 12.72, 8.53, 1.2, 0.57, 1.61, 2.51, 2.79, 1.24, -0.0, -0.0, 0.6, 0.89, 1.2, 1.24, 0.65, 0.65, 0.65, 7.13, 7.13, 6.68, 6.68, 6.71, 6.71, 6.6, 5.88, 5.75, 5.49, 5.86, 5.86, 5.49, 5.75, 5.75, 5.75, 5.6, 5.6, 5.31, 5.31, 4.8, 4.8, 4.8, 4.8, 4.8, 4.8, 4.9, 5.51, 5.57, 5.57, 5.57, 5.51, 5.31, 5.31, 5.08, 5.21, 5.21, 5.21, 4.94, 4.74, 4.74, 4.75, 4.47, 4.08, 3.83, 3.4, 3.37, 2.89, 2.89, 2.89, 2.33, 2.19, 1.75, 1.11, 1.11, 0.59, -0.0, -0.0, -0.57, -0.57, -0.57, -1.14, -1.76, -2.23, -2.3, -2.21, -1.18, -2.16, -2.4, -1.9, -2.15, -2.07, -1.47, -0.0, 0.83, 1.63, 3.2, 4.71, 5.64, 5.52, 6.97, 10.98, 11.83, 4.02, 0.0, 0.53, 1.16, 1.16, 0.0, -0.0, -0.0, -0.0, 0.63, 0.63, 0.57, 0.0, 0.0, 0.0, 7.13, 7.13, 7.15, 7.15, 7.15, 7.15, 6.61, 5.88, 6.0, 5.75, 5.75, 5.75, 5.75, 5.75, 5.75, 5.75, 5.6, 5.6, 5.31, 5.31, 4.8, 4.8, 4.8, 4.8, 4.9, 5.09, 5.09, 5.51, 5.57, 5.57, 5.51, 5.31, 5.31, 5.08, 5.47, 5.21, 5.21, 5.21, 4.94, 4.74, 4.74, 4.75, 4.47, 4.08, 4.08, 3.4, 3.4, 2.89, 2.89, 2.89, 2.33, 2.33, 1.67, 1.67, 1.11, 0.55, -0.0, -0.0, -0.58, -0.57, -0.57, -1.14, -1.14, -2.33, -2.8, -2.54, -1.55, -0.81, -1.49, -1.49, -2.07, -2.15, -2.4, -0.78, -0.0, 1.55, 2.4, 3.27, 4.5, 5.41, 5.95, 7.9, 10.98, 11.83, 2.5, -0.54, -0.65, -1.58, -1.34, -0.0, -0.0, -0.0, -0.0, 0.0, 0.0, -0.6, -0.6, -0.6, 7.13, 7.15, 7.15, 7.15, 7.15, 7.15, 6.68, 6.04, 6.0, 5.75, 5.75, 5.75, 5.75, 5.75, 5.75, 6.0, 5.6, 5.6, 5.81, 5.31, 4.8, 4.8, 4.8, 5.09, 5.09, 5.09, 5.09, 5.09, 5.51, 5.51, 5.31, 5.31, 5.08, 5.08, 5.21, 5.21, 5.21, 5.21, 4.94, 4.74, 4.74, 4.75, 4.47, 4.1, 4.08, 3.4, 3.4, 2.92, 2.89, 2.89, 2.86, 2.33, 1.78, 1.12, 0.56, -0.0, -0.0, -0.0, -0.58, -0.58, -0.58, -0.58, -1.2, -2.23, -2.77, -3.32, -2.4, -1.55, -0.78, -0.78, -0.76, -0.7, -1.4, -1.49, -0.0, 0.79, 1.49, 2.54, 3.15, 4.71, 5.52, 5.41, 7.9, 13.35, 11.54, -1.9, -2.5, -3.07, -2.17, -0.6, -0.0, -0.0, -1.2, -1.34, -1.7, -1.49, -1.49, -1.49, 7.15, 7.6, 7.6, 7.15, 7.15, 7.15, 6.68, 6.04, 5.81, 6.0, 6.0, 5.75, 6.0, 6.0, 6.0, 5.6, 5.6, 5.6, 5.81, 5.31, 4.9, 4.8, 5.02, 5.09, 5.09, 5.09, 5.09, 5.09, 5.31, 5.31, 5.31, 5.08, 5.08, 5.21, 5.21, 5.21, 5.21, 5.21, 4.94, 5.01, 4.74, 4.75, 4.47, 4.1, 3.84, 3.64, 3.4, 3.4, 2.89, 2.89, 2.86, 2.33, 2.21, 1.12, 0.56, -0.0, -0.0, -0.0, -0.55, -0.59, -0.55, -0.55, -1.15, -1.79, -2.9, -3.49, -3.91, -3.09, -2.4, -1.55, -0.76, -0.0, -0.0, -0.66, -0.66, -0.0, 0.78, 1.52, 2.35, 4.0, 4.83, 5.38, 6.88, 12.47, 2.86, -1.9, -1.88, -2.15, -2.24, -0.57, 0.54, -0.0, -1.79, -2.68, -2.6, -2.6, -2.6, -2.6, 7.6, 7.6, 7.6, 7.6, 7.6, 7.15, 6.71, 6.16, 5.81, 5.6, 6.0, 6.0, 6.0, 6.0, 5.6, 5.6, 5.6, 5.81, 5.81, 5.4, 5.31, 4.9, 5.09, 5.09, 5.09, 5.09, 5.09, 5.31, 5.31, 5.31, 5.31, 5.08, 5.08, 5.21, 5.21, 5.21, 5.21, 5.21, 4.94, 5.01, 4.74, 4.75, 4.75, 4.47, 4.1, 3.84, 3.64, 3.4, 3.4, 2.89, 2.89, 2.86, 2.33, 1.12, 0.56, -0.0, -0.0, -0.0, -0.59, -0.59, -0.59, -0.59, -1.16, -1.71, -2.9, -3.45, -4.6, -4.26, -3.33, -2.47, -1.73, -0.79, -0.0, -0.0, -0.79, -0.0, -0.0, 1.55, 2.26, 3.27, 4.71, 4.71, 7.02, 13.23, 3.07, -0.65, -0.53, 0.0, -0.0, 0.61, 1.16, 0.4, -1.2, -2.6, -3.07, -2.91, -2.91, -2.91, 8.05, 8.05, 8.05, 8.05, 7.6, 7.6, 7.15, 6.16, 5.99, 5.81, 5.6, 5.6, 5.6, 5.6, 5.6, 5.6, 5.81, 5.81, 5.81, 5.81, 5.31, 5.31, 5.09, 5.09, 5.09, 5.51, 5.31, 5.31, 5.31, 5.31, 5.08, 5.08, 5.08, 5.08, 5.47, 5.47, 5.21, 5.21, 4.94, 5.01, 5.01, 4.75, 4.75, 4.47, 4.1, 3.84, 3.42, 3.64, 3.4, 2.89, 2.89, 2.86, 1.78, 1.12, 0.56, -0.0, -0.0, -0.0, -0.0, -0.56, -0.56, -0.56, -0.59, -1.16, -2.39, -3.45, -4.2, -4.05, -4.01, -3.47, -3.22, -1.7, -0.0, -0.0, -1.41, -1.47, -0.79, 0.73, 3.06, 3.27, 3.69, 4.71, 12.47, 11.88, 1.86, -1.16, 0.0, 1.2, 1.84, 1.8, 2.23, 1.9, 0.0, -0.6, -1.26, -1.86, -1.86, -1.86, 8.05, 8.05, 8.05, 8.05, 8.05, 7.6, 7.15, 6.68, 6.04, 5.81, 5.81, 5.6, 5.6, 5.6, 5.6, 5.81, 5.81, 5.81, 5.81, 5.81, 5.81, 5.4, 5.51, 5.51, 5.51, 5.31, 5.31, 5.4, 5.4, 5.31, 5.31, 5.08, 5.08, 5.08, 5.08, 5.08, 4.84, 5.21, 4.94, 5.01, 5.01, 4.75, 4.75, 4.75, 4.1, 4.1, 3.84, 3.64, 3.4, 3.4, 2.89, 2.89, 1.78, 1.2, 1.14, 0.57, -0.0, -0.0, -0.0, -0.0, -0.56, -0.59, -0.56, -1.11, -1.73, -2.93, -3.65, -4.24, -3.79, -3.22, -2.53, -1.66, -0.88, -0.0, -1.49, -2.98, -2.26, -0.0, 2.35, 3.15, 3.27, 4.96, 11.87, 13.76, 2.86, -1.2, 0.0, 1.2, 1.8, 2.51, 3.14, 3.07, 0.89, 0.0, 0.0, 0.0, 0.0, 0.0, 8.49, 8.49, 8.49, 8.05, 8.05, 8.05, 7.6, 6.71, 6.16, 5.57, 5.4, 5.81, 5.81, 5.81, 5.81, 5.81, 5.81, 5.81, 5.81, 5.81, 5.81, 5.81, 5.57, 5.4, 5.4, 5.4, 5.81, 5.81, 5.81, 5.81, 5.72, 5.31, 5.31, 5.08, 5.08, 5.08, 4.65, 5.01, 4.94, 5.29, 5.01, 5.01, 4.75, 4.75, 4.47, 4.1, 4.1, 3.84, 3.64, 3.4, 3.6, 2.89, 2.21, 1.69, 1.14, 0.57, -0.0, -0.0, -0.0, -0.0, -0.0, -0.56, -0.56, -1.18, -1.75, -2.42, -3.49, -4.2, -3.4, -3.22, -2.4, -1.55, -0.81, -0.7, -1.55, -2.98, -3.72, -1.47, 0.79, 2.4, 3.27, 6.14, 9.62, 14.5, 11.9, 1.79, -0.63, 1.16, 3.15, 3.72, 3.39, 3.39, 2.63, 0.95, 0.0, 0.0, 0.0, 0.0, 8.49, 8.49, 8.49, 8.49, 8.49, 8.03, 7.6, 6.71, 6.23, 5.57, 5.51, 5.31, 5.31, 5.81, 5.81, 5.81, 5.81, 5.81, 5.81, 5.81, 5.99, 5.99, 5.99, 5.81, 5.81, 5.81, 5.81, 5.81, 5.81, 5.81, 5.81, 5.31, 5.08, 5.08, 5.08, 5.08, 4.84, 5.21, 4.94, 5.29, 5.01, 5.01, 5.06, 4.75, 4.75, 4.47, 4.47, 4.1, 4.08, 3.64, 3.4, 2.73, 2.23, 2.23, 1.71, 1.16, 0.58, 0.58, 0.58, -0.0, -0.0, -0.57, -0.56, -1.12, -1.12, -1.75, -2.83, -3.52, -3.37, -2.64, -2.29, -1.84, -1.7, -1.55, -2.29, -2.29, -3.43, -3.07, -0.82, 0.82, 3.2, 5.59, 8.03, 12.47, 15.67, 10.68, 2.53, 2.51, 5.72, 6.52, 3.82, 3.53, 3.98, 3.13, 0.65, 0.0, 0.0, 0.0, 8.94, 8.94, 8.94, 8.49, 8.47, 8.47, 8.03, 7.15, 6.23, 5.7, 5.09, 5.09, 5.31, 5.4, 5.81, 5.81, 5.81, 5.81, 5.99, 6.04, 6.04, 6.04, 5.99, 5.81, 5.81, 5.81, 5.81, 5.81, 5.81, 5.81, 5.81, 5.81, 5.08, 5.08, 5.08, 5.08, 5.21, 5.21, 4.94, 5.29, 5.29, 5.01, 5.35, 5.06, 5.06, 4.75, 4.47, 4.47, 4.08, 4.08, 3.64, 2.92, 2.92, 2.4, 1.73, 1.09, 1.09, 0.59, 0.55, 0.58, -0.0, -0.0, -0.57, -0.61, -1.12, -1.67, -2.3, -3.52, -3.37, -3.09, -2.35, -2.4, -2.4, -2.3, -2.4, -2.2, -2.07, -1.88, -1.88, 0.76, 2.47, 4.95, 7.44, 11.09, 14.3, 13.43, 8.03, 5.69, 7.61, 9.4, 8.25, 3.98, 4.02, 3.51, 0.65, -1.33, -1.33, -1.33, 8.94, 8.94, 8.94, 8.94, 8.47, 8.47, 8.03, 7.15, 6.26, 5.24, 5.24, 5.09, 5.09, 5.57, 5.81, 5.81, 5.99, 5.99, 6.04, 6.04, 6.04, 6.04, 6.04, 6.04, 6.3, 6.3, 6.3, 6.3, 6.23, 5.81, 5.81, 5.81, 5.6, 5.47, 5.47, 5.47, 5.21, 5.21, 5.21, 5.29, 5.29, 5.29, 5.01, 5.35, 5.35, 5.06, 5.06, 4.47, 4.47, 4.36, 4.08, 3.4, 2.92, 2.75, 2.26, 1.73, 1.18, 1.1, 1.18, 1.09, 0.58, -0.0, -0.0, -0.57, -1.12, -1.67, -2.33, -2.86, -3.37, -2.92, -2.8, -2.4, -2.53, -2.15, -1.88, -2.15, -1.4, -1.4, -1.16, -0.0, 1.6, 5.06, 7.44, 10.55, 12.79, 12.08, 8.3, 6.64, 8.24, 11.05, 10.91, 5.94, 3.07, 1.9, 0.0, -1.84, -1.84, -1.84, 8.94, 8.94, 8.94, 8.92, 8.92, 8.47, 8.03, 7.58, 6.26, 5.34, 5.24, 5.24, 5.09, 5.57, 5.99, 5.99, 6.04, 6.47, 6.47, 6.47, 6.47, 6.47, 6.47, 6.47, 6.3, 6.3, 6.3, 6.3, 6.3, 6.3, 6.3, 6.23, 5.6, 5.6, 5.6, 5.6, 5.37, 5.21, 5.21, 5.58, 5.29, 5.29, 5.29, 5.59, 5.35, 5.35, 5.06, 5.06, 4.75, 4.47, 4.1, 3.42, 3.42, 2.96, 2.44, 2.29, 1.76, 1.76, 1.76, 1.18, 1.09, 0.58, -0.0, -0.0, -0.57, -1.12, -1.78, -2.33, -2.89, -2.75, -2.49, -2.6, -1.66, -2.48, -1.2, -1.88, -1.16, -1.33, -1.33, -0.7, 0.81, 3.9, 6.39, 9.3, 11.88, 11.9, 8.6, 7.18, 8.22, 11.09, 12.01, 7.46, 1.7, 0.0, 0.0, -1.0, -1.0, -1.0, 8.92, 8.92, 9.37, 9.37, 8.92, 8.92, 8.47, 7.58, 6.71, 5.81, 5.33, 5.24, 5.24, 5.57, 5.99, 6.04, 6.47, 6.47, 6.47, 6.51, 6.51, 6.47, 6.47, 6.47, 6.3, 6.3, 6.3, 6.3, 6.3, 6.3, 6.3, 6.3, 6.1, 6.1, 6.0, 6.0, 6.0, 5.75, 5.75, 5.75, 5.75, 5.49, 5.49, 5.86, 5.86, 5.59, 5.59, 5.06, 5.06, 4.75, 4.1, 4.1, 4.1, 3.42, 2.77, 2.77, 2.29, 2.29, 2.29, 1.73, 1.18, 0.58, -0.0, -0.0, -0.57, -1.14, -1.78, -2.21, -2.23, -2.26, -2.32, -1.7, -1.76, -2.73, -1.2, -1.4, -1.16, -1.33, -1.49, -0.66, -0.0, 2.47, 5.69, 8.03, 10.28, 10.86, 9.17, 7.73, 8.46, 10.24, 11.9, 8.3, 0.63, -1.86, -1.2, -1.2, -1.2, -1.2, 8.92, 8.92, 9.37, 9.37, 8.92, 8.92, 8.47, 7.58, 6.71, 5.81, 5.33, 5.24, 5.24, 5.57, 5.99, 6.04, 6.47, 6.47, 6.47, 6.51, 6.51, 6.47, 6.47, 6.47, 6.3, 6.3, 6.3, 6.3, 6.3, 6.3, 6.3, 6.3, 6.1, 6.1, 6.0, 6.0, 6.0, 5.75, 5.75, 5.75, 5.75, 5.49, 5.49, 5.86, 5.86, 5.59, 5.59, 5.06, 5.06, 4.75, 4.1, 4.1, 4.1, 3.42, 2.77, 2.77, 2.29, 2.29, 2.29, 1.73, 1.18, 0.58, -0.0, -0.0, -0.57, -1.14, -1.78, -2.21, -2.23, -2.26, -2.32, -1.7, -1.76, -2.73, -1.2, -1.4, -1.33, -1.33, -1.49, -0.66, -0.0, 1.55, 4.16, 6.32, 7.97, 8.85, 8.37, 8.37, 8.76, 9.48, 10.86, 10.24, 1.88, -2.12, -1.9, -1.49, -1.49, -1.49]}, {"header": {"dx": 0.06612293990616946, "dy": 0.0552356325346848, "nx": 98, "ny": 59, "la1": 35.046912555036876, "la2": 31.78801023549047, "lo1": -121.43107172385933, "lo2": -114.95102361305473, "refTime": "2026041112", "parameterCategory": 1, "parameterNumber": 3}, "data": [2.86, 2.23, 2.48, 2.44, 2.2, 2.22, 2.23, 1.84, 1.88, 1.2, 1.2, 1.24, 1.0, 1.0, 1.26, 0.95, -0.0, 0.6, 0.8, 1.86, 2.6, 2.68, 2.68, 2.68, 2.24, 1.79, 1.7, 1.24, 0.65, -0.0, -0.0, -0.0, -0.0, -0.0, 1.34, 0.87, 0.0, -0.82, -0.79, 0.0, 0.89, 0.89, 0.95, 0.0, 0.0, 0.6, 0.0, 0.0, 0.0, 0.0, 0.71, 1.9, 1.9, 2.17, 2.24, 2.24, 2.8, 3.49, 3.79, 3.48, 1.9, 0.0, -1.6, -3.74, -3.07, -2.68, -2.6, -2.21, -1.49, -0.76, -0.74, -1.55, -1.47, -0.71, 0.0, 0.89, 0.89, -0.0, -0.0, -0.57, -0.71, -1.2, -1.4, -1.4, -1.49, -1.9, -1.86, -2.17, -2.24, -2.91, -3.84, -5.05, -5.09, -5.09, -4.46, -3.79, -3.16, -2.51, 2.5, 2.5, 2.53, 2.23, 2.44, 2.44, 1.76, 1.8, 1.61, 1.61, 1.24, 1.2, 1.0, 0.8, 1.58, 1.58, 0.63, 0.6, 1.58, 2.23, 2.23, 2.6, 3.13, 3.13, 2.68, 1.79, 1.34, 1.6, 0.57, -0.0, -0.0, -0.0, -0.0, -0.0, -0.0, 0.0, 0.0, -0.82, -0.87, 0.0, 0.45, 1.34, 0.0, 0.0, 0.0, 0.0, 0.0, 0.0, 0.0, 0.0, 0.8, 1.26, 1.58, 1.7, 1.79, 1.79, 2.17, 2.8, 3.49, 3.79, 3.35, 0.71, -0.89, -2.54, -3.32, -3.95, -3.58, -3.32, -2.15, -1.55, -0.74, -0.72, -0.65, 0.0, 0.0, 0.0, 0.0, -0.0, -0.0, -0.57, -0.71, -1.2, -1.4, -1.4, -1.49, -1.9, -1.86, -2.17, -2.24, -2.91, -3.84, -5.05, -5.09, -5.09, -4.46, -3.79, -3.16, -2.51, 2.5, 2.4, 2.15, 2.53, 2.51, 2.22, 2.22, 1.8, 1.84, 1.88, 1.9, 1.9, 1.9, 2.0, 1.6, 1.26, 0.6, 0.8, 1.26, 1.58, 2.23, 2.23, 2.54, 2.68, 3.04, 2.6, 1.79, 1.34, 1.2, 0.6, -0.0, -0.0, -0.0, -0.0, -0.0, 0.0, 0.0, -0.81, -1.9, 0.0, 0.0, 0.0, -0.89, -0.89, 0.0, 0.0, 0.0, 0.0, 0.0, 0.0, 0.0, 0.0, 0.63, 0.89, 1.2, 1.7, 2.24, 2.6, 2.8, 3.49, 3.72, 3.35, 0.8, -0.89, -2.6, -3.97, -4.47, -3.97, -3.74, -2.41, -1.52, -0.82, 0.0, -0.0, -0.45, -0.45, -0.45, -0.0, -1.24, -1.2, -1.4, -1.16, -1.33, -1.33, -1.4, -1.4, -1.49, -2.12, -2.68, -3.83, -5.46, -6.07, -6.07, -6.07, -5.05, -3.14, -2.53, -2.53, 2.15, 2.4, 2.4, 2.5, 2.79, 2.84, 2.48, 2.23, 1.84, 1.61, 1.61, 1.9, 1.9, 1.2, 1.2, 1.2, 0.95, 1.0, 0.8, 1.86, 2.4, 2.23, 2.54, 2.6, 3.13, 3.04, 3.07, 2.24, 1.79, 1.34, 0.63, 0.8, 0.8, -0.0, -1.34, 0.0, 0.0, 0.0, 0.0, -0.0, 0.0, -1.26, -1.34, 0.0, 0.0, 0.45, 0.63, 0.0, 0.0, 0.0, 0.0, 0.0, 0.0, 0.89, 1.6, 1.49, 1.7, 2.24, 2.6, 2.5, 3.84, 4.81, 4.81, 1.58, -0.89, -3.04, -3.07, -3.13, -3.07, -2.5, -0.79, 0.0, 0.0, -0.0, -0.57, -0.95, -1.49, -1.9, -1.88, -2.07, -2.07, -1.33, -1.33, -1.41, -2.3, -1.88, -1.9, -2.6, -3.53, -6.07, -6.44, -6.07, -5.69, -4.09, -2.5, -1.86, -1.24, -1.2, 2.5, 2.4, 2.4, 2.5, 2.68, 2.79, 2.84, 2.51, 1.84, 1.61, 1.61, 1.49, 0.6, 1.2, 1.2, 1.2, 2.0, 2.0, 1.9, 1.58, 2.23, 3.04, 3.04, 3.13, 3.58, 3.58, 3.47, 2.6, 2.24, 1.79, 0.63, -0.0, -0.0, 0.0, 0.0, 0.0, 0.0, 0.0, 1.2, 2.0, 0.0, -0.8, 0.0, 1.34, 0.89, 1.34, 1.2, 0.95, 0.0, 0.0, 0.0, 0.0, -0.0, 0.63, 1.7, 2.12, 1.7, 1.79, 2.24, 2.6, 2.8, 4.8, 6.94, 7.06, 3.74, 0.0, -1.7, -2.6, -2.24, -0.95, 1.2, 2.73, 1.9, 0.6, 0.65, -0.0, -1.24, -1.88, -1.88, -2.48, -2.66, -2.0, -1.41, -2.2, -3.22, -3.79, -3.74, -4.02, -6.36, -7.07, -5.72, -5.09, -3.45, -1.2, 0.0, 0.0, -0.71, -0.65, 2.5, 2.8, 2.8, 2.5, 2.5, 3.07, 3.14, 2.84, 2.51, 1.84, 1.88, 1.24, 0.6, 0.95, 1.2, 1.2, 2.0, 2.0, 1.58, 1.0, 1.24, 1.9, 2.6, 3.13, 3.58, 3.58, 4.34, 4.77, 2.97, 1.79, 0.63, -0.0, -0.79, -1.74, -1.79, -1.74, -0.88, 0.0, 2.21, 2.4, 1.26, 1.58, 2.24, 2.68, 1.79, 1.7, 1.7, 0.95, 0.63, 0.89, 1.34, 0.89, 1.34, 1.2, 1.7, 1.7, 1.26, 1.26, 1.79, 2.68, 3.13, 5.36, 8.46, 10.49, 10.95, 7.6, 1.86, 0.0, 0.0, 2.17, 2.91, 3.49, 3.49, 2.17, 2.12, 1.86, -0.0, -1.58, -1.88, -1.84, -2.73, -3.64, -3.38, -3.72, -4.75, -6.64, -7.28, -7.6, -7.89, -7.35, -6.0, -5.05, -2.12, 0.57, -0.0, -1.2, -1.4, -1.16, 2.5, 2.91, 2.91, 2.91, 2.91, 2.68, 3.07, 3.35, 3.35, 3.14, 2.21, 1.9, 0.95, 1.2, 2.4, 0.95, 1.58, 1.26, -0.0, -0.0, -0.0, -0.0, 0.57, 1.86, 2.24, 2.24, 2.12, 2.0, 1.6, 1.34, 0.89, -0.0, -0.88, -2.68, -3.13, -3.22, -2.4, 1.6, 3.39, 2.6, 3.13, 3.82, 4.92, 5.36, 4.77, 3.2, 2.6, 1.6, 1.34, 4.47, 4.92, 2.24, 2.24, 1.79, 0.95, 0.42, -0.0, -0.0, 1.26, 2.6, 3.51, 6.51, 7.6, 8.91, 9.83, 10.48, 8.32, 4.46, 3.45, 3.45, 2.86, 2.5, 2.53, 1.88, 1.7, 1.7, 1.2, -0.0, -1.9, -2.53, -3.16, -5.09, -6.06, -6.7, -7.2, -8.06, -8.36, -8.05, -7.89, -7.28, -7.14, -4.43, -0.54, -0.0, -1.2, -2.0, -2.53, -1.84, 3.07, 2.91, 2.91, 2.91, 2.91, 2.91, 3.07, 3.6, 3.72, 3.35, 3.14, 2.79, 1.26, 1.7, 3.39, 1.6, 2.12, 1.26, 0.0, 0.0, 0.0, 0.45, 0.63, 0.4, 0.63, 0.0, 0.0, 0.0, 0.63, 1.34, 1.58, 1.79, -0.0, -2.84, -4.47, -4.8, -2.3, 4.15, 5.36, 4.02, 3.58, 4.02, 4.92, 5.2, 4.4, 4.09, 4.15, 3.95, 2.68, 5.36, 3.13, 2.68, 2.17, 1.79, 0.8, -0.0, -0.57, -0.0, 1.9, 3.83, 5.34, 5.34, 4.41, 4.92, 5.86, 7.07, 8.3, 7.68, 5.37, 3.16, 1.9, 0.71, 0.0, 0.0, 0.0, -0.0, -0.0, -0.0, -1.9, -2.91, -3.32, -5.69, -7.46, -8.4, -8.97, -8.71, -7.94, -7.56, -7.6, -7.45, -4.92, -2.51, -0.66, -1.2, -2.24, -2.91, -2.53, -2.23, 2.79, 3.07, 3.32, 3.39, 3.07, 3.07, 3.39, 3.6, 3.72, 3.72, 3.09, 2.84, 1.58, 1.86, 1.6, 1.34, 2.24, 1.79, 1.34, 0.89, 1.79, 1.34, 1.79, 0.89, -0.0, -0.0, -0.89, -0.63, 0.0, 0.63, 0.0, 1.4, 0.0, -2.68, -5.81, -6.02, -1.26, 5.36, 5.81, 4.02, 3.39, 3.58, 3.58, 3.2, 3.35, 4.57, 6.14, 6.61, 4.41, 4.41, 4.47, 1.34, 1.34, 1.34, 1.6, -0.0, -0.0, -0.0, 2.86, 4.84, 4.8, 4.22, 2.12, 1.79, 1.86, 3.16, 4.56, 5.38, 4.56, 2.53, 1.26, 0.6, 0.0, -0.6, -1.7, -2.15, -1.84, -1.88, -2.5, -2.63, -2.68, -3.82, -6.85, -8.48, -8.48, -7.28, -4.73, -3.97, -3.97, -3.6, -2.0, -0.67, -1.23, -2.53, -2.68, -3.07, -3.14, -2.84, 2.53, 3.07, 3.07, 3.32, 3.07, 3.07, 3.09, 3.39, 3.6, 3.35, 3.14, 2.84, 2.23, 1.88, 0.6, 0.95, 1.34, 1.34, 1.34, 1.34, 1.34, 0.89, 0.63, 0.0, -0.0, -0.0, -0.0, -0.0, 0.0, 0.0, 0.0, 0.0, 0.0, -1.9, -3.72, -1.2, 3.58, 5.29, 4.92, 3.39, 2.97, 2.6, 2.6, 2.21, 3.2, 4.92, 4.92, 5.29, 5.34, 4.22, 2.54, 0.45, -0.0, -0.0, -0.0, -0.0, -0.0, 1.0, 4.22, 5.2, 4.22, 3.2, 3.58, 0.0, -0.6, -0.54, 0.0, 0.67, 0.69, 0.76, 1.34, 1.34, 0.0, -0.95, -2.21, -3.16, -4.46, -4.81, -3.72, -3.32, -2.68, -3.07, -4.02, -5.78, -5.2, -2.53, -0.61, -0.61, -0.66, -0.61, -0.67, -1.19, -2.0, -1.88, -1.79, -2.86, -3.14, -3.14, 2.53, 2.53, 2.68, 2.91, 3.07, 3.07, 3.07, 3.39, 3.2, 3.07, 2.79, 2.53, 2.21, 1.88, 0.6, 0.63, 0.45, 0.95, 0.95, 0.0, 0.0, 0.0, -0.4, 0.0, 0.0, 0.0, -0.0, 0.0, 0.0, -0.95, 0.0, 0.0, 0.0, 0.0, 1.74, 6.14, 7.15, 5.36, 3.6, 2.53, 2.6, 2.6, 1.9, 3.39, 4.92, 4.47, 2.68, 1.79, 2.8, 3.22, 3.6, 3.58, 2.6, -0.0, -1.9, -1.9, -1.9, -0.0, 4.22, 5.75, 5.09, 3.2, 1.79, -0.95, -1.86, -3.07, -4.46, -3.9, -2.4, -0.6, 0.6, 1.49, 0.54, -0.0, -1.2, -1.9, -2.5, -4.46, -6.0, -6.28, -4.87, -3.58, -3.07, -3.32, -2.6, -0.45, 0.57, 0.61, 0.67, -0.0, -1.35, -2.0, -1.33, -0.57, -0.63, -1.9, -3.45, -3.6, 2.53, 2.21, 2.5, 2.5, 2.91, 3.07, 3.07, 3.07, 2.91, 3.07, 3.07, 2.21, 1.88, 1.2, 0.99, 0.95, 0.89, 0.95, 0.57, 0.71, 0.0, 0.0, -0.65, 0.0, 0.0, 0.0, 0.0, 0.0, 0.0, 0.0, 0.0, 0.0, 0.0, 0.0, 2.24, 4.47, 4.41, 2.23, 0.85, 1.74, 2.98, 3.2, 3.04, 4.47, 5.36, 4.92, 4.02, 3.13, 4.34, 4.77, 6.26, 7.56, 7.89, 6.21, 2.54, 2.0, -0.0, -0.0, 3.84, 7.21, 7.11, 4.38, 0.0, -2.4, -2.5, -2.21, -1.88, -1.4, -2.15, -1.2, -0.0, 1.33, 1.33, 0.65, -0.0, -0.0, 0.0, -1.6, -4.4, -6.13, -6.79, -4.87, -3.53, -2.84, -1.33, 0.0, 0.65, 0.63, -0.0, -0.0, -1.27, -1.84, -0.54, -0.0, 0.0, -1.24, -2.91, -3.82, 2.53, 2.21, 2.5, 2.5, 2.5, 2.91, 2.63, 2.63, 3.07, 2.91, 2.68, 2.5, 1.9, 1.24, 0.8, 0.95, 0.89, 0.95, 0.57, 1.2, 0.61, 0.61, 0.0, 0.0, 0.0, 0.0, 0.0, 0.0, 0.0, 0.0, 0.0, 0.0, 0.0, 0.0, 0.0, 0.63, 0.89, 1.26, 0.0, 1.58, 3.47, 4.38, 4.02, 4.47, 5.2, 6.14, 6.71, 6.71, 6.71, 6.61, 6.71, 8.19, 9.83, 10.18, 9.83, 9.83, 8.17, 5.7, 5.34, 7.89, 8.9, 6.26, 0.89, 0.0, 1.2, 3.07, 6.22, 7.15, 3.58, 4.02, 2.4, 0.7, 1.27, 2.15, 1.9, 0.63, 0.45, 0.0, -0.89, -1.79, -5.05, -6.28, -5.36, -3.39, -0.66, 1.41, 2.2, 1.2, 0.89, -0.0, -1.2, -0.54, -0.0, -0.0, 0.0, -0.95, -2.6, -3.58, 2.53, 2.5, 2.5, 2.5, 2.5, 2.4, 2.4, 2.6, 2.68, 2.63, 2.8, 2.15, 1.58, 1.26, 0.95, 0.63, 0.89, 0.63, 0.8, 1.0, 1.16, 1.13, 0.59, 0.0, 0.0, 0.0, 0.0, 0.0, 0.0, 0.0, -0.55, 0.0, 0.0, -0.6, 0.0, 0.45, 1.34, 1.79, 1.2, 2.24, 3.58, 4.02, 4.92, 6.14, 6.36, 6.36, 5.59, 6.14, 6.71, 7.15, 7.15, 7.63, 7.2, 7.63, 7.97, 8.05, 9.11, 10.7, 9.83, 8.14, 8.8, 8.94, 8.05, 8.43, 9.7, 10.62, 12.44, 12.96, 12.92, 11.62, 10.87, 4.41, 1.88, 1.84, 1.86, 0.89, 0.45, 0.0, 0.0, 0.0, -1.34, -4.66, -5.77, -3.13, 0.0, 3.84, 6.06, 5.09, 3.14, 2.0, -0.0, -0.0, -0.0, -0.0, -0.0, -0.63, -2.17, -3.53, 2.53, 2.5, 2.5, 2.5, 2.5, 2.15, 2.4, 2.17, 2.24, 2.24, 2.6, 2.4, 1.86, 1.26, 1.2, 0.63, 0.89, 0.89, 0.6, 0.71, 1.2, 1.33, 1.13, 0.57, 0.63, 0.0, 0.0, 0.0, 0.0, -0.54, -0.54, -1.19, -1.19, -1.27, 0.0, 2.8, 4.47, 2.54, 3.82, 2.68, 3.58, 4.47, 5.2, 5.7, 5.81, 5.81, 5.81, 5.81, 6.61, 6.71, 7.15, 6.79, 5.2, 4.09, 4.66, 5.36, 6.26, 8.82, 9.81, 8.87, 7.71, 8.17, 9.11, 10.04, 10.04, 10.04, 10.66, 10.28, 8.87, 7.81, 10.68, 11.9, 5.6, 0.57, -0.0, -0.0, -0.0, 0.0, 0.0, 0.0, 0.0, -1.26, -2.12, -1.2, 2.12, 3.97, 6.94, 7.67, 7.54, 6.39, 2.84, 0.89, -0.0, 0.71, 0.71, -1.2, -2.5, -2.5, 2.53, 2.21, 2.5, 2.5, 2.15, 2.4, 2.23, 1.86, 1.79, 2.24, 2.24, 2.17, 1.86, 1.26, 1.2, 0.89, 0.89, 0.89, 0.63, 0.8, 0.54, 0.53, 0.59, 0.57, 0.57, 0.55, 0.61, 0.0, 0.0, -0.59, -1.16, -1.16, -1.16, -1.19, 0.0, 1.86, 3.04, 3.47, 4.34, 4.47, 4.02, 4.47, 4.77, 4.77, 5.2, 5.4, 5.4, 5.01, 5.2, 5.4, 6.61, 5.7, 4.77, 3.72, 3.35, 4.09, 4.8, 6.14, 7.15, 6.71, 5.75, 6.13, 5.75, 5.37, 5.2, 5.37, 5.75, 7.15, 6.17, 5.26, 6.79, 8.59, 8.37, 1.24, -1.24, -0.57, -0.0, 0.0, 0.0, 0.0, 0.0, 0.0, 0.0, 0.0, 2.15, 4.02, 4.47, 5.86, 6.7, 6.01, 5.38, 0.45, 0.71, 1.24, 0.8, -0.0, -1.2, -1.2, 2.79, 2.5, 2.5, 2.15, 2.4, 2.4, 1.86, 1.86, 1.7, 1.79, 1.79, 2.24, 2.24, 1.7, 1.2, 0.89, 0.89, 0.89, 0.63, 0.0, 0.0, 0.0, 0.0, 0.59, 0.57, 0.63, 0.55, 0.54, 0.0, 0.0, -0.59, -1.14, -1.26, -1.14, 0.0, 1.58, 2.4, 4.4, 3.82, 4.92, 5.36, 4.47, 5.36, 4.15, 5.2, 5.2, 4.8, 4.8, 4.09, 3.16, 2.84, 3.2, 3.82, 3.72, 3.48, 3.79, 2.73, 1.8, 2.21, 4.24, 4.4, 3.79, 3.79, 3.48, 4.09, 3.22, 4.4, 4.77, 7.6, 7.81, 5.59, 3.51, 4.65, 2.26, 0.0, 1.2, 2.17, 1.24, 0.57, 0.54, 0.61, 1.41, 0.78, 1.36, 3.07, 3.97, 4.02, 3.49, 3.64, 2.99, 2.75, 1.16, 0.45, 0.89, 0.89, 0.45, 0.0, 0.0, 2.68, 2.68, 2.5, 2.15, 2.4, 1.86, 1.86, 1.86, 1.7, 1.79, 1.7, 1.7, 2.24, 1.79, 1.79, 1.34, 0.89, 0.89, 0.63, 0.0, 0.0, 0.0, 0.0, 0.53, 1.16, 1.13, 0.57, 0.55, 0.0, 0.0, -0.53, -0.58, -1.14, -1.26, -0.55, 0.71, 3.22, 4.8, 5.2, 4.77, 5.36, 5.36, 5.36, 5.2, 4.8, 4.8, 4.4, 4.4, 3.72, 3.6, 2.8, 2.4, 3.2, 3.72, 3.48, 2.73, 1.27, -0.0, -0.0, 2.84, 3.72, 4.09, 3.48, 4.65, 5.01, 4.22, 3.48, 1.49, 2.4, 2.48, 1.1, 0.78, 1.54, 2.39, 1.61, 2.91, 3.49, 4.03, 2.35, 1.27, 0.66, 1.52, 0.76, 3.14, 3.53, 3.07, 1.9, 2.84, 1.41, 0.7, 2.26, 2.11, 0.53, 0.0, 0.57, 1.24, 0.57, 0.57, 3.07, 2.91, 2.91, 2.4, 2.4, 1.86, 1.86, 2.12, 1.7, 1.34, 1.34, 1.6, 1.86, 2.12, 1.79, 1.79, 1.34, 0.89, 0.95, 0.0, 0.0, 0.0, 0.0, 1.0, 0.85, 1.13, 1.13, 0.65, 0.0, 0.0, 0.0, 0.0, -0.58, -1.05, 0.0, 1.27, 2.84, 3.88, 5.09, 5.2, 4.85, 5.36, 5.7, 5.81, 4.8, 3.72, 4.4, 4.4, 3.72, 3.82, 3.82, 3.39, 3.82, 3.72, 3.72, 2.84, 2.23, 1.41, 1.41, 2.73, 2.48, 3.48, 4.65, 4.81, 5.82, 5.15, 2.53, 0.65, -1.2, -2.23, -2.16, 0.0, 1.55, 2.28, 2.26, 1.33, 1.13, 2.18, 2.31, 2.28, 0.0, 0.0, 0.61, 2.17, 2.17, 1.26, 0.54, 0.61, 0.66, 0.0, 0.66, 1.41, 0.63, 0.0, 0.57, 1.2, 1.16, 1.16, 3.13, 3.07, 3.07, 2.63, 2.4, 2.0, 1.86, 2.12, 1.7, 1.34, 1.34, 1.6, 1.26, 1.86, 2.12, 1.79, 1.34, 0.89, 0.89, 0.0, 0.0, 0.0, 0.6, 1.26, 0.71, 0.0, 0.54, 1.23, 0.61, 0.59, 0.59, 0.0, 0.0, 0.0, 0.0, 1.57, 2.86, 3.43, 4.27, 4.6, 4.8, 5.36, 5.99, 5.81, 4.8, 4.29, 4.8, 4.8, 3.72, 3.35, 3.82, 4.24, 4.47, 4.24, 3.04, 2.23, 2.84, 0.71, 1.74, 2.73, 2.98, 3.49, 5.06, 4.75, 3.79, 2.79, 1.4, 0.57, -1.34, -2.5, -2.98, -2.44, -0.77, 0.0, 0.0, -0.72, -2.07, -2.11, 0.0, 0.74, 0.0, 0.0, 0.0, 0.63, 0.89, 0.57, 1.2, 1.61, 1.27, 0.59, 0.0, 0.0, 0.0, 0.0, 0.57, 1.2, 1.16, 1.16, 3.13, 3.13, 3.13, 3.13, 2.63, 2.6, 2.17, 2.12, 1.7, 1.34, 1.34, 1.2, 1.26, 1.58, 1.86, 2.12, 1.7, 1.34, 0.63, 0.0, 0.0, 0.8, 0.8, 0.57, 0.65, 0.61, 0.59, 1.23, 1.19, 1.16, 1.14, 0.58, 0.0, 0.0, 0.58, 1.7, 2.44, 3.16, 4.27, 5.09, 5.24, 5.81, 6.61, 7.26, 6.51, 5.75, 4.8, 4.4, 3.72, 3.35, 3.82, 3.82, 4.47, 4.47, 4.92, 3.04, 1.6, 0.6, 1.41, 3.22, 4.74, 4.75, 4.75, 3.45, 2.53, 1.49, 0.54, -0.0, 0.0, 0.0, 0.0, -1.52, -3.07, -3.87, -3.11, -3.06, -6.35, -5.37, -3.79, -0.76, 0.0, 0.0, 0.53, 0.6, 0.4, 0.57, 1.61, 2.53, 1.8, 1.23, 0.0, -0.59, 0.0, 0.53, 0.57, 0.57, 1.2, 1.2, 2.91, 3.07, 3.13, 3.13, 3.13, 2.68, 2.68, 2.24, 1.79, 1.34, 1.34, 1.2, 1.26, 1.26, 1.86, 1.86, 1.86, 1.26, 0.6, 0.0, 0.0, 0.57, 0.57, 0.54, 0.53, 0.61, 0.59, 1.23, 1.19, 1.16, 0.58, 0.57, 0.0, 0.0, 0.57, 1.14, 1.7, 2.86, 4.0, 5.09, 5.7, 5.79, 6.68, 7.84, 7.51, 5.6, 4.8, 4.4, 4.4, 4.09, 4.24, 4.24, 4.34, 4.92, 5.36, 5.36, 3.47, 2.54, 3.16, 4.43, 4.74, 4.65, 4.01, 2.76, 2.3, 1.8, 0.57, -0.0, 0.45, 3.39, 4.98, 6.69, 2.9, -2.4, -2.84, -4.09, -6.4, -7.33, -6.9, -4.74, -1.52, 0.0, 0.67, 1.27, 0.7, 0.61, 1.16, 1.33, 0.0, 1.3, 0.0, 0.0, 0.0, 0.0, 0.0, 0.6, 0.57, 0.57, 2.5, 2.5, 2.91, 3.07, 3.13, 3.13, 2.68, 2.24, 1.79, 1.34, 1.34, 1.2, 1.26, 1.26, 1.58, 1.86, 1.86, 1.24, 1.24, 0.57, 0.57, 0.57, 0.0, 0.0, 0.53, 0.61, 0.59, 0.57, 0.55, 0.54, 0.53, 0.0, 0.0, 0.0, 0.0, 0.57, 1.67, 2.61, 3.48, 4.8, 5.31, 6.16, 6.68, 7.58, 7.87, 6.94, 5.81, 5.81, 5.81, 5.4, 4.4, 4.77, 4.77, 4.77, 5.2, 6.14, 5.59, 5.59, 3.39, 2.84, 4.29, 4.01, 3.35, 2.53, 2.68, 2.84, 1.2, 0.0, 0.63, 2.8, 6.26, 10.8, 1.16, -2.84, -2.8, -1.79, -4.73, -7.28, -7.76, -7.56, -4.73, -1.41, 0.0, 0.7, 0.63, 0.66, 0.66, 0.0, -0.63, 0.0, 0.61, 1.41, 1.16, 0.0, 0.0, 0.0, 0.0, 0.0, 1.61, 1.61, 2.5, 2.91, 3.07, 3.07, 3.07, 2.68, 2.24, 1.79, 1.34, 1.2, 1.26, 1.26, 1.24, 1.24, 1.24, 1.24, 1.49, 1.2, 0.71, 0.57, 0.0, 0.0, 0.0, 0.61, 0.59, 0.57, 0.55, 0.0, 0.0, 0.0, 0.0, 0.0, 0.0, 0.0, 1.8, 2.82, 3.22, 3.79, 5.21, 6.1, 6.94, 7.58, 8.03, 7.97, 7.74, 7.74, 7.31, 6.79, 5.81, 4.8, 4.4, 4.8, 4.8, 5.81, 5.43, 6.28, 6.14, 4.0, 3.07, 3.35, 3.07, 3.16, 3.16, 3.22, 1.2, 2.24, 1.26, 1.16, 1.16, 5.73, 5.45, 0.57, -1.13, -2.24, -4.34, -6.61, -7.81, -7.94, -6.85, -4.09, -2.51, -1.11, -0.66, -0.57, -0.63, -0.57, 0.0, 2.23, 2.88, 3.76, 4.02, 1.4, 0.0, -0.89, 0.0, 0.0, 1.13, 1.13, 2.21, 2.68, 3.07, 2.91, 2.91, 2.63, 2.6, 2.17, 1.7, 1.6, 1.26, 1.26, 1.24, 1.24, 1.24, 1.24, 1.2, 1.2, 1.2, 0.54, 0.54, 0.0, 0.0, 0.61, 0.59, 0.57, 0.0, 0.0, 0.0, 0.0, -0.58, -0.57, -0.57, 0.0, 1.65, 3.45, 4.12, 4.45, 5.35, 6.41, 7.01, 7.4, 7.58, 8.03, 7.87, 7.87, 7.26, 7.21, 6.51, 5.75, 5.2, 5.2, 4.8, 4.65, 4.74, 5.21, 6.14, 5.81, 3.72, 1.66, 2.68, 3.16, 3.58, 1.26, 1.7, 1.86, 1.88, -0.0, -0.63, 0.79, 7.63, 7.79, 1.61, -1.34, -2.24, -2.6, -5.26, -5.81, -7.57, -6.11, -4.52, -3.16, -2.07, -1.8, -1.8, -0.53, 1.58, 4.3, 7.6, 6.32, 5.26, 3.79, 1.0, 0.0, 0.0, 0.0, 0.55, 0.55, 1.6, 2.53, 2.79, 3.07, 2.68, 2.91, 2.4, 2.4, 2.12, 1.49, 1.26, 1.24, 1.24, 1.24, 1.24, 1.0, 1.2, 1.2, 0.65, 0.65, 0.65, 0.65, 0.0, 0.0, 0.0, 0.0, 0.0, 0.0, 0.0, 0.0, -0.53, -0.58, -0.58, 0.0, 2.14, 4.1, 4.75, 5.38, 5.69, 6.51, 7.2, 7.51, 7.4, 7.6, 8.03, 8.42, 8.3, 7.87, 7.69, 7.21, 6.99, 6.4, 5.81, 4.8, 4.65, 4.43, 4.43, 5.7, 4.92, 3.35, 3.16, 3.84, 3.58, 2.6, 1.6, 2.4, 1.33, -0.0, -0.0, 1.27, 6.05, 11.08, 10.98, 2.53, -2.24, -2.24, -1.79, -2.68, -5.36, -6.71, -5.2, -3.6, -2.53, -1.88, -1.2, 1.24, 3.32, 4.73, 6.64, 7.61, 6.17, 4.8, 3.32, 1.84, 1.24, 1.24, 0.54, 0.54, 1.76, 2.51, 2.79, 2.79, 2.79, 2.68, 2.8, 2.4, 2.4, 1.86, 1.58, 1.24, 1.24, 0.65, 0.65, 0.65, 0.65, 0.65, 0.65, 0.65, 0.65, 0.53, 0.0, 0.0, 0.0, 0.0, 0.0, 0.0, 0.0, -0.61, -0.61, -0.59, 0.0, 1.14, 2.8, 4.1, 4.75, 5.1, 5.69, 6.51, 7.2, 7.51, 7.69, 7.51, 8.05, 8.47, 8.86, 8.42, 8.42, 8.33, 8.17, 8.0, 6.7, 5.59, 5.2, 4.11, 3.07, 3.16, 5.2, 4.85, 4.8, 4.22, 4.4, 2.97, 1.9, 1.9, 2.15, 1.58, 0.4, 0.0, 2.41, 7.64, 13.07, 13.41, 1.84, -1.7, -0.89, 0.0, -1.79, -4.02, -4.02, -3.53, -2.63, -1.26, 0.99, 3.07, 4.4, 4.4, 4.37, 5.64, 6.97, 5.41, 4.28, 4.14, 2.6, 2.6, 0.53, 0.53, 1.19, 2.23, 2.51, 2.84, 2.84, 2.79, 2.68, 2.5, 2.15, 1.9, 1.24, 1.24, 0.54, 0.65, 0.65, 0.65, 0.53, 0.53, 0.65, 0.65, 0.65, 0.0, 0.0, 0.0, 0.0, 0.0, 0.0, 0.0, -0.54, -0.61, -0.61, -0.54, 0.0, 1.7, 3.04, 3.85, 4.1, 4.47, 5.08, 5.93, 6.8, 7.01, 7.01, 7.21, 7.51, 8.94, 9.39, 9.37, 8.92, 8.87, 9.32, 9.11, 8.48, 7.21, 6.36, 5.81, 4.19, 3.07, 3.84, 4.8, 4.8, 4.22, 3.9, 4.24, 0.57, -0.0, 0.57, 1.7, 1.34, 0.0, -0.89, 0.63, 4.01, 7.71, 7.7, 1.33, -0.63, 0.0, 0.0, -3.45, -3.82, -1.79, -0.89, 0.63, 2.91, 5.46, 6.08, 5.09, 3.79, 4.36, 6.09, 5.68, 4.8, 4.4, 3.51, 3.51, 0.0, 0.0, 1.16, 1.76, 2.48, 2.86, 3.16, 2.84, 2.79, 2.5, 2.5, 1.9, 1.61, 1.2, 0.65, 0.65, 0.53, 0.61, 0.61, 0.61, 0.61, 0.53, 0.0, 0.0, 0.0, 0.0, 0.0, 0.0, 0.0, 0.0, -0.54, -0.54, -0.61, 0.0, 0.54, 1.7, 2.82, 3.47, 3.45, 4.1, 4.47, 5.35, 6.28, 5.86, 6.28, 6.51, 6.51, 7.58, 8.49, 9.39, 9.37, 9.37, 9.37, 9.32, 9.11, 8.48, 8.37, 7.4, 4.84, 3.79, 3.79, 4.19, 4.19, 4.0, 3.74, 4.15, 1.9, -0.0, -0.0, 0.71, 2.24, 1.6, -2.68, -4.41, -3.45, -2.28, 2.23, 3.83, 0.66, -0.63, 0.0, -1.2, 0.0, 1.8, 1.61, 2.51, 4.75, 5.06, 5.3, 4.56, 4.36, 3.9, 4.07, 5.77, 5.47, 5.0, 4.12, 4.12, 0.0, 0.0, 0.59, 1.73, 2.22, 2.6, 2.86, 3.16, 2.84, 2.53, 2.21, 1.88, 1.88, 1.4, 0.53, 0.53, 0.53, 0.61, 0.61, 0.61, 0.61, 0.61, 0.0, 0.0, 0.0, 0.0, 0.0, 0.0, 0.0, 0.0, -0.59, -0.59, -0.54, 0.0, 0.54, 1.16, 2.18, 2.36, 2.8, 3.45, 4.1, 5.06, 5.86, 6.28, 7.01, 6.4, 6.28, 7.4, 7.97, 8.49, 8.94, 8.92, 9.39, 9.37, 8.79, 8.96, 8.72, 8.22, 5.46, 3.63, 3.35, 3.35, 2.41, 2.53, 4.84, 5.05, 5.16, 2.6, 0.65, 0.61, 1.7, 3.84, 0.0, -6.21, -10.02, -7.68, -3.95, 0.0, 1.55, 0.0, -0.99, 0.0, 3.12, 4.73, 5.32, 4.8, 4.37, 4.14, 4.14, 4.14, 4.29, 3.79, 4.07, 4.6, 4.4, 4.15, 3.98, 3.98, 0.0, 0.0, 0.53, 1.07, 1.73, 2.44, 2.86, 3.15, 2.86, 2.84, 2.53, 2.53, 1.61, 1.16, 1.16, 0.61, 0.61, 0.61, 0.61, 0.51, 0.51, 0.59, 0.0, 0.0, 0.0, 0.0, 0.0, 0.0, 0.0, 0.0, -0.53, -0.59, -0.59, 0.0, 0.0, 1.16, 1.84, 2.16, 2.8, 3.45, 3.85, 5.06, 5.93, 6.41, 6.8, 6.8, 6.94, 7.51, 7.87, 8.47, 8.94, 8.94, 8.94, 8.92, 8.87, 9.11, 9.39, 8.72, 6.95, 4.01, 2.4, 1.66, 0.99, 2.41, 4.11, 3.72, 4.46, 7.6, 5.7, 2.4, 0.85, 3.04, 4.03, 0.0, -6.07, -8.55, -6.06, -3.09, -0.75, 0.0, -0.63, 0.57, 5.01, 5.1, 4.8, 4.68, 4.17, 3.53, 2.69, 3.2, 3.38, 2.66, 2.8, 2.9, 3.46, 3.61, 3.61, 3.61, 0.0, 0.0, 0.0, 1.16, 1.73, 2.2, 2.86, 2.86, 3.15, 2.86, 2.84, 2.23, 2.23, 1.84, 1.13, 1.13, 0.51, 0.61, 0.51, 0.59, 0.59, 0.59, 0.59, 0.0, 0.0, 0.0, 0.0, 0.0, 0.0, 0.0, 0.0, 0.0, -0.59, 0.0, 0.0, 0.53, 1.67, 2.32, 2.8, 3.45, 4.12, 5.06, 5.65, 6.15, 6.41, 6.67, 6.56, 7.31, 8.17, 8.86, 8.92, 8.94, 8.94, 8.94, 9.37, 9.23, 9.11, 8.96, 8.22, 5.29, 2.53, 0.87, 1.74, 2.15, 2.79, 2.98, 2.88, 2.21, 5.7, 3.72, 1.26, -0.0, 2.73, 4.54, 0.0, -3.83, -2.8, -0.65, -0.78, -0.69, 0.0, 1.4, 2.86, 4.08, 3.07, 2.96, 3.04, 2.93, 2.28, 2.12, 2.07, 1.88, 1.33, 1.98, 2.76, 2.89, 2.89, 2.89, 0.0, 0.0, 0.0, 0.53, 1.7, 2.4, 2.84, 2.84, 3.49, 3.15, 2.86, 2.84, 2.51, 1.8, 1.8, 1.27, 1.13, 1.27, 1.27, 0.59, 0.59, 0.59, 0.66, 0.57, 0.0, 0.0, 0.0, 0.0, 0.0, 0.0, 0.0, 0.0, 0.0, 0.0, 0.0, 0.58, 1.65, 2.29, 3.0, 3.45, 4.45, 5.06, 5.65, 6.51, 6.7, 6.41, 6.56, 7.51, 8.17, 8.77, 8.86, 8.86, 8.92, 8.94, 9.37, 9.77, 9.68, 9.54, 8.96, 7.31, 4.65, 2.21, 3.48, 3.22, 2.84, 3.79, 2.98, 1.4, 3.2, 3.82, 2.54, 0.0, 0.0, 1.67, 3.11, 0.0, -0.95, 0.0, 0.0, 0.0, 0.0, 1.16, 1.61, 1.33, 1.78, 1.18, 1.2, 1.72, 1.47, 1.27, 1.9, 1.26, 0.71, 0.59, 0.67, 2.28, 2.01, 2.01, 0.0, 0.0, 0.0, 0.58, 1.16, 2.4, 2.84, 3.22, 3.22, 3.49, 3.15, 2.86, 2.48, 2.23, 1.8, 1.8, 1.58, 1.11, 1.11, 1.11, 1.27, 1.27, 0.57, 0.57, 0.57, 0.0, 0.0, 0.0, 0.0, 0.0, 0.0, 0.0, 0.0, 0.0, 0.0, 0.57, 1.65, 2.77, 3.45, 3.85, 4.45, 5.06, 5.65, 6.51, 6.7, 6.7, 6.95, 7.51, 8.21, 8.77, 8.77, 8.77, 8.87, 9.37, 9.83, 9.77, 10.14, 10.13, 9.57, 8.64, 5.01, 4.29, 4.65, 4.43, 3.16, 3.48, 4.11, 3.07, 3.35, 4.02, 4.15, 2.21, 0.0, 0.0, 1.58, 2.41, 0.0, 0.0, 0.0, 0.0, 0.0, 0.61, 0.54, 0.65, 0.66, 0.59, 0.57, 1.14, 1.36, 1.84, 1.9, 1.26, 0.0, 0.0, 0.0, 0.67, 0.71, 0.71, 0.0, 0.0, 0.0, 0.57, 1.14, 2.18, 2.84, 3.49, 3.49, 3.49, 3.49, 2.86, 2.86, 2.22, 2.22, 1.76, 1.76, 1.76, 1.23, 1.23, 1.11, 1.11, 1.11, 0.57, 0.63, 0.55, 0.0, 0.0, 0.0, 0.0, 0.0, 0.57, 0.0, 0.0, 0.57, 1.12, 1.76, 2.29, 3.45, 3.85, 4.45, 4.75, 5.93, 6.15, 6.51, 6.7, 7.2, 8.0, 8.17, 8.33, 8.33, 8.77, 9.32, 9.32, 9.83, 9.82, 10.22, 10.14, 10.13, 9.68, 5.75, 4.74, 4.43, 4.43, 4.43, 3.76, 3.07, 3.35, 4.22, 4.47, 4.24, 4.65, 2.6, 0.0, 0.0, 3.11, 2.9, 1.47, 0.0, 0.0, 0.0, 0.0, 0.63, 0.95, 1.49, 1.8, 1.73, 1.27, 1.84, 2.53, 1.88, 1.0, 0.0, 0.0, -0.61, -0.59, 0.0, 0.0, -0.56, -0.56, 0.0, 0.0, 1.14, 2.36, 2.82, 3.49, 3.49, 3.49, 3.49, 3.49, 3.12, 2.84, 2.86, 2.44, 1.76, 1.76, 1.76, 1.76, 1.76, 1.58, 1.11, 1.23, 0.55, 0.55, 0.61, 0.0, 0.0, 0.0, 0.0, 0.58, 0.57, 0.57, 0.57, 1.12, 1.65, 2.29, 3.0, 3.85, 4.39, 4.75, 5.59, 5.59, 6.15, 6.95, 7.31, 8.0, 8.0, 8.21, 8.77, 8.87, 9.32, 9.32, 9.82, 9.83, 10.27, 10.22, 10.14, 10.13, 8.64, 5.01, 3.76, 2.41, 2.68, 3.49, 1.6, 2.3, 2.21, 4.15, 4.92, 5.2, 4.71, 2.4, 0.0, 0.66, 3.91, 5.18, 3.95, 2.0, 0.65, 0.89, 1.49, 2.24, 2.63, 2.5, 2.21, 2.53, 2.53, 1.84, 1.33, 0.61, 0.0, 0.0, -0.61, -0.7, 0.0, 0.0, -0.56, -0.56, 0.0, 0.0, 0.53, 1.67, 2.82, 3.22, 3.49, 3.49, 3.49, 3.22, 3.49, 3.49, 2.84, 2.84, 2.44, 2.44, 2.2, 1.94, 1.76, 1.76, 1.76, 1.23, 1.08, 1.19, 0.61, 0.54, 0.59, 0.59, 0.53, 0.58, 0.58, 0.57, 0.57, 1.12, 1.65, 2.29, 3.0, 3.45, 4.12, 4.75, 5.35, 5.77, 5.86, 6.41, 7.31, 8.0, 8.0, 8.21, 8.86, 8.87, 9.32, 9.32, 9.32, 9.83, 10.28, 10.22, 10.14, 10.14, 9.68, 7.21, 3.49, 2.41, 2.21, 3.79, 2.15, 3.48, 3.16, 4.22, 4.38, 5.59, 6.01, 5.69, 0.0, -1.6, 0.0, 2.31, 3.91, 3.37, 2.79, 2.24, 2.6, 3.13, 3.13, 3.39, 3.14, 2.84, 2.51, 1.8, 1.27, 0.66, 0.0, -0.79, -0.7, -1.27, -1.41, -0.73, -0.59, -0.59, -0.55, 0.0, 0.0, 1.67, 2.82, 3.22, 3.47, 3.76, 3.49, 3.76, 3.49, 3.49, 3.49, 3.49, 2.84, 2.84, 2.2, 2.2, 2.44, 2.22, 1.76, 1.76, 1.19, 1.19, 1.07, 1.16, 0.59, 0.53, 0.58, 0.58, 0.58, 0.58, 1.14, 1.12, 1.12, 2.32, 2.8, 3.45, 4.12, 4.75, 5.35, 6.08, 5.59, 6.41, 6.8, 7.51, 8.0, 8.21, 8.86, 8.87, 8.87, 9.32, 9.32, 9.82, 10.28, 10.27, 10.14, 10.14, 10.13, 8.3, 5.81, 3.22, 2.86, 4.65, 5.24, 4.46, 4.8, 4.22, 5.09, 6.26, 6.87, 6.97, 2.73, -4.41, -4.92, -2.3, 0.0, 1.36, 2.84, 2.8, 2.6, 2.68, 3.58, 3.72, 3.43, 2.2, 1.41, 1.35, 0.63, 0.0, -0.63, -1.6, -1.47, -2.11, -2.11, -1.41, -0.55, -0.55, -0.58, -0.59, 0.0, 1.67, 2.82, 3.47, 3.84, 3.84, 3.84, 3.84, 3.76, 3.49, 3.49, 3.49, 3.49, 2.84, 2.84, 2.4, 2.2, 2.44, 2.44, 1.94, 1.73, 1.73, 1.16, 1.16, 1.05, 0.58, 0.58, 0.53, 1.05, 1.14, 1.14, 1.14, 1.23, 2.32, 2.8, 3.72, 4.12, 4.75, 5.06, 5.93, 7.07, 6.41, 7.2, 7.71, 8.0, 8.64, 8.87, 8.87, 8.87, 8.87, 9.32, 9.82, 9.83, 10.27, 10.66, 10.58, 10.47, 9.11, 5.81, 5.2, 4.65, 4.43, 2.86, 3.22, 4.4, 4.22, 4.4, 5.75, 6.79, 7.9, 9.17, -1.2, -8.63, -7.15, -2.86, 0.54, 3.07, 3.14, 2.21, 2.12, 2.17, 2.84, 2.8, 1.45, 0.69, 0.0, 0.0, -0.74, -1.45, -2.4, -3.2, -3.11, -2.88, -2.11, -1.16, -1.16, -0.58, -0.59, 0.0, 1.14, 2.16, 3.47, 3.84, 4.12, 4.12, 3.84, 3.84, 4.12, 3.76, 3.49, 3.49, 3.49, 2.84, 2.84, 2.4, 2.2, 2.44, 2.44, 1.73, 1.73, 1.7, 1.16, 1.14, 1.14, 1.14, 1.16, 1.16, 1.14, 1.14, 1.14, 1.67, 2.16, 3.47, 3.47, 4.12, 4.45, 5.06, 5.93, 6.41, 7.42, 7.31, 7.81, 8.48, 8.64, 9.23, 8.87, 8.86, 8.86, 9.32, 9.82, 9.83, 10.27, 10.66, 10.6, 10.47, 9.57, 8.24, 5.81, 4.8, 4.8, 2.15, 4.65, 2.86, 4.4, 4.8, 5.75, 6.14, 6.87, 8.85, 6.95, -0.89, -3.97, -2.6, 1.34, 3.32, 4.36, 2.88, 1.2, 0.57, 0.61, 0.67, 0.0, 0.0, -0.73, -1.52, -2.12, -2.99, -2.99, -3.2, -3.22, -2.3, -2.3, -1.16, -1.16, -1.16, -0.59, 0.0, 1.12, 2.32, 3.47, 4.12, 4.12, 4.12, 4.12, 4.12, 3.84, 4.12, 3.76, 3.49, 3.08, 2.82, 2.84, 2.84, 2.84, 2.2, 2.2, 1.73, 1.73, 1.7, 1.14, 1.14, 1.14, 1.14, 1.7, 1.7, 1.14, 1.14, 1.14, 1.84, 2.82, 3.47, 3.72, 4.12, 4.45, 5.06, 5.93, 6.41, 6.95, 7.71, 8.22, 8.48, 8.67, 8.79, 8.79, 8.77, 8.86, 9.32, 9.82, 10.28, 10.28, 10.71, 10.67, 11.04, 10.47, 8.17, 6.23, 4.8, 4.8, 4.8, 5.2, 3.45, 4.09, 4.8, 5.59, 6.14, 5.82, 6.87, 8.85, 7.24, 1.33, 0.0, 1.34, 2.84, 3.6, 3.61, 1.45, 0.0, -0.61, -0.67, -1.44, -1.52, -2.06, -2.17, -2.9, -2.9, -2.29, -1.88, -2.21, -2.21, -2.21, -1.16, -1.16, -1.09, -0.59, 0.0, 1.12, 2.32, 2.8, 4.12, 4.12, 4.12, 4.12, 4.12, 4.12, 3.84, 3.47, 3.22, 2.82, 2.82, 2.84, 2.84, 2.84, 2.4, 2.2, 1.73, 1.73, 1.7, 1.84, 1.67, 1.67, 1.67, 1.84, 1.67, 1.14, 1.14, 1.84, 2.36, 3.47, 3.47, 4.12, 4.12, 4.75, 5.93, 6.15, 6.95, 7.31, 7.81, 8.0, 8.64, 8.64, 8.77, 8.77, 8.77, 8.87, 9.37, 9.82, 9.83, 10.28, 10.71, 11.11, 11.04, 10.94, 9.57, 7.74, 5.4, 4.8, 5.2, 5.37, 4.4, 4.46, 4.66, 5.31, 5.36, 5.43, 5.06, 5.49, 8.01, 8.05, 6.05, 4.65, 3.11, 2.75, 2.76, 2.12, 0.0, -1.8, -2.29, -2.9, -2.99, -2.9, -2.82, -2.2, -1.27, -0.71, -1.24, -1.9, -1.9, -1.9, -1.16, -1.16, -1.09, -0.59, 0.0, 0.57, 1.65, 2.8, 3.85, 3.85, 4.75, 4.45, 4.12, 4.12, 4.12, 3.47, 3.47, 2.82, 2.82, 2.84, 2.84, 2.84, 2.4, 2.4, 2.2, 1.88, 1.7, 1.84, 1.67, 1.67, 1.67, 1.67, 1.14, 1.14, 1.7, 2.18, 2.82, 3.47, 3.47, 4.12, 4.45, 5.06, 5.93, 6.15, 6.95, 7.31, 7.81, 8.0, 8.17, 8.17, 8.21, 8.21, 8.77, 8.87, 9.37, 9.37, 9.83, 10.28, 10.71, 11.11, 11.04, 11.04, 10.47, 8.21, 6.79, 5.26, 5.4, 4.4, 4.84, 4.84, 5.81, 5.29, 4.92, 5.09, 4.81, 5.06, 6.24, 7.73, 9.1, 9.1, 8.01, 4.96, 2.82, 1.52, 0.0, -2.73, -3.64, -3.55, -3.79, -2.88, -2.12, 0.0, 0.0, -0.8, -1.58, -2.4, -2.4, -2.4, -1.09, -1.09, -1.18, -0.59, 0.0, 0.61, 1.65, 2.8, 3.45, 3.85, 4.47, 4.1, 3.85, 3.85, 3.85, 3.47, 3.47, 3.04, 2.82, 2.36, 2.84, 2.4, 2.4, 2.4, 2.4, 1.88, 1.7, 1.84, 1.67, 1.67, 1.67, 1.67, 1.67, 1.7, 2.18, 2.82, 3.22, 3.47, 3.84, 4.12, 4.45, 5.35, 6.15, 6.41, 6.95, 7.31, 7.51, 7.58, 8.0, 8.17, 8.17, 8.17, 8.77, 8.87, 8.92, 9.37, 9.83, 10.28, 10.71, 11.11, 11.11, 11.04, 10.58, 9.57, 7.21, 5.81, 5.4, 3.74, 4.4, 4.46, 5.2, 4.85, 4.92, 4.85, 5.2, 5.09, 6.06, 7.27, 7.9, 9.27, 10.75, 9.22, 4.03, 0.65, -0.54, -2.15, -3.43, -3.64, -2.79, -2.2, 0.0, 0.6, 0.0, -0.8, -1.86, -2.4, -2.4, -2.4, -1.18, -1.18, -1.18, -0.56, 0.0, 0.0, 1.12, 2.8, 3.45, 4.1, 4.1, 4.1, 4.1, 3.85, 3.45, 3.45, 3.47, 3.04, 2.82, 2.36, 2.4, 2.4, 2.4, 2.4, 2.4, 2.4, 2.18, 1.84, 1.67, 1.67, 1.67, 1.67, 1.7, 2.18, 2.82, 3.22, 3.47, 3.47, 3.84, 4.12, 4.74, 5.35, 5.93, 6.41, 6.56, 7.2, 7.51, 7.51, 7.51, 7.51, 7.74, 8.17, 8.77, 8.87, 8.87, 9.37, 9.83, 10.28, 10.71, 10.67, 10.67, 10.67, 10.6, 10.01, 8.17, 6.36, 5.81, 5.4, 4.65, 3.58, 3.84, 5.09, 5.31, 5.36, 5.59, 5.75, 6.44, 7.02, 7.68, 7.68, 10.24, 11.92, 8.53, 0.6, -1.7, -2.15, -3.14, -3.49, -1.86, 0.45, 0.89, 1.2, 0.0, -0.6, -1.86, -2.6, -2.6, -2.6, -0.59, -0.59, -0.56, -0.56, 0.0, 0.0, 1.2, 2.14, 3.45, 3.85, 4.1, 4.1, 3.85, 3.45, 3.45, 3.45, 2.8, 2.8, 2.36, 2.36, 2.4, 2.4, 2.4, 2.4, 2.4, 2.4, 2.18, 1.84, 1.67, 1.67, 1.67, 1.84, 2.36, 2.36, 2.82, 3.47, 3.47, 3.47, 3.84, 4.74, 4.74, 5.35, 5.59, 6.41, 6.56, 6.8, 7.31, 7.51, 7.51, 7.51, 8.17, 8.21, 8.77, 8.87, 8.87, 9.37, 9.83, 10.28, 10.27, 10.27, 10.27, 10.22, 10.58, 10.04, 8.64, 7.74, 7.06, 5.4, 4.8, 1.9, 2.86, 3.45, 5.16, 6.26, 6.65, 6.51, 6.4, 7.07, 8.06, 8.67, 9.3, 11.76, 13.41, 5.36, -1.34, -2.63, -2.91, -2.91, 0.0, 0.89, 1.34, 1.34, 0.63, -0.63, -1.7, -2.24, -2.24, -2.24, -0.55, -0.55, 0.0, 0.0, 0.0, 0.0, 1.1, 2.14, 3.0, 3.45, 3.45, 3.45, 3.45, 3.45, 3.45, 3.45, 2.8, 2.8, 2.36, 2.36, 2.4, 2.4, 2.4, 2.4, 2.18, 1.7, 1.7, 1.84, 1.67, 1.67, 1.84, 2.36, 2.36, 2.82, 3.04, 3.47, 3.47, 3.47, 3.84, 4.74, 4.74, 5.35, 5.59, 6.41, 6.41, 6.8, 6.8, 7.51, 7.51, 7.51, 8.17, 8.17, 8.33, 8.33, 8.87, 9.37, 9.83, 9.83, 9.82, 10.27, 10.27, 10.22, 10.22, 10.47, 8.96, 7.63, 6.98, 4.85, 3.74, 3.74, 3.45, 2.86, 4.8, 6.21, 6.71, 6.98, 7.21, 7.35, 8.24, 9.27, 8.93, 10.28, 14.11, 13.41, 1.88, -2.17, -2.6, -1.58, -0.0, 0.89, 1.34, 1.34, 0.89, 0.0, -0.89, -1.2, -1.2, -1.2, -0.55, 0.0, 0.0, 0.0, 0.0, 0.0, 0.56, 1.65, 3.0, 3.45, 3.45, 3.45, 3.45, 3.45, 3.45, 3.0, 2.8, 2.8, 2.32, 2.36, 2.4, 2.4, 2.4, 1.7, 1.7, 1.7, 1.7, 1.7, 1.84, 1.84, 2.36, 2.36, 2.82, 2.82, 3.47, 3.47, 3.47, 3.47, 3.84, 4.74, 4.74, 5.35, 5.59, 5.86, 6.41, 6.8, 6.8, 7.01, 7.51, 7.51, 8.0, 8.17, 8.3, 8.42, 8.92, 9.39, 9.83, 9.83, 9.82, 9.82, 9.82, 9.82, 10.21, 10.04, 9.43, 8.3, 7.21, 6.98, 6.21, 6.21, 5.31, 3.51, 2.8, 3.74, 4.92, 7.11, 7.45, 7.63, 7.89, 8.63, 8.67, 9.27, 10.28, 12.56, 8.46, -1.9, -1.88, -1.84, -0.54, 1.2, 1.34, 1.34, 0.6, -0.0, -0.57, -0.99, -0.99, -0.99, 0.0, 0.0, 0.0, 0.0, 0.0, 0.0, 0.56, 1.65, 2.32, 3.0, 3.0, 3.45, 3.0, 3.0, 3.0, 2.8, 2.8, 2.8, 2.32, 2.36, 2.18, 2.4, 1.88, 1.7, 1.7, 1.7, 1.7, 1.7, 2.36, 2.36, 2.36, 2.82, 2.82, 3.47, 3.47, 3.47, 3.47, 3.47, 3.84, 4.45, 4.74, 5.35, 5.59, 5.86, 6.03, 6.67, 6.8, 6.8, 7.51, 7.51, 8.0, 8.17, 7.74, 8.42, 8.92, 9.39, 9.39, 9.39, 9.37, 9.37, 9.37, 9.37, 9.77, 10.13, 9.86, 8.72, 7.03, 6.94, 7.21, 6.98, 7.56, 6.26, 5.36, 3.97, 3.97, 5.36, 6.21, 6.07, 6.28, 8.0, 8.05, 7.69, 7.64, 7.01, 2.15, -1.9, -2.5, -1.61, -0.0, 1.7, 2.17, 0.89, -0.0, -0.0, -0.65, -0.65, -0.65, -0.65, 0.0, 0.0, 0.0, 0.0, 0.0, 0.0, 0.0, 1.12, 2.32, 2.8, 3.0, 3.0, 3.0, 3.0, 2.8, 2.8, 2.8, 2.32, 2.32, 2.16, 2.36, 2.18, 1.7, 1.7, 1.7, 1.7, 1.7, 2.36, 2.36, 2.36, 2.36, 2.82, 2.82, 3.47, 3.47, 3.47, 3.47, 3.47, 3.84, 4.45, 4.74, 5.35, 5.35, 5.59, 5.86, 6.03, 6.67, 6.8, 6.8, 7.51, 7.51, 8.0, 8.17, 8.42, 8.47, 8.94, 8.94, 8.94, 9.37, 9.37, 9.37, 9.37, 9.32, 9.68, 9.86, 9.21, 7.67, 6.82, 5.82, 5.75, 6.94, 7.11, 7.15, 4.92, 3.95, 4.47, 5.81, 6.98, 6.79, 7.35, 7.07, 7.07, 6.24, 5.45, 1.84, -2.6, -2.63, -0.45, 2.24, 3.07, 2.91, 0.8, -0.6, -0.65, -0.61, -1.16, -1.16, -1.16, 0.0, 0.0, 0.0, 0.0, 0.0, 0.0, 0.0, 1.12, 1.8, 2.32, 2.8, 2.8, 2.8, 2.8, 2.8, 2.8, 2.32, 2.32, 2.32, 2.32, 2.36, 2.36, 1.7, 1.7, 1.7, 1.84, 2.36, 2.36, 2.36, 2.36, 2.82, 2.82, 2.82, 2.82, 3.04, 3.04, 3.47, 3.47, 3.84, 4.45, 4.45, 5.35, 5.35, 5.59, 5.86, 6.03, 6.28, 6.67, 6.8, 7.51, 7.51, 8.0, 8.3, 8.42, 8.47, 8.49, 8.49, 8.94, 8.94, 8.92, 8.92, 8.92, 9.37, 9.32, 9.54, 9.21, 8.4, 6.95, 4.81, 5.21, 4.84, 5.09, 5.36, 5.36, 4.24, 5.16, 7.11, 8.01, 8.4, 7.35, 6.64, 7.07, 7.01, 7.13, 1.24, -2.91, -2.24, 0.6, 3.07, 3.6, 3.35, 1.9, -0.45, -1.2, -1.26, -1.24, -1.24, -1.24, 0.0, 0.0, 0.0, 0.0, 0.0, 0.0, 0.0, 0.56, 1.65, 2.32, 2.32, 2.8, 2.8, 2.8, 2.8, 2.32, 2.32, 2.32, 2.32, 2.32, 2.32, 2.16, 1.84, 1.84, 1.84, 2.36, 2.36, 2.16, 2.16, 2.36, 2.36, 2.82, 2.82, 2.82, 2.82, 2.82, 3.22, 3.47, 3.84, 4.45, 4.45, 5.35, 5.35, 5.35, 5.86, 5.86, 6.03, 6.67, 6.8, 6.8, 7.51, 7.51, 8.3, 8.41, 7.97, 8.03, 8.49, 8.49, 8.49, 8.49, 8.47, 8.92, 8.92, 8.87, 9.23, 9.39, 9.13, 7.87, 6.07, 4.84, 4.22, 4.15, 4.38, 3.13, 3.74, 4.46, 6.79, 7.6, 8.63, 7.89, 7.35, 7.44, 9.49, 10.7, 2.15, -2.4, -0.89, 2.4, 3.6, 3.14, 2.51, 1.84, 0.0, -1.34, -1.79, -1.79, -1.79, -1.79, 0.0, 0.0, 0.0, 0.0, 0.0, 0.0, 0.0, 0.0, 1.12, 1.67, 2.16, 2.32, 2.32, 2.32, 2.32, 2.32, 2.32, 2.32, 2.32, 2.32, 2.32, 2.32, 1.67, 2.16, 2.16, 2.16, 2.32, 2.32, 2.32, 2.32, 2.54, 2.36, 2.36, 2.82, 2.82, 2.82, 3.49, 3.76, 3.84, 4.12, 4.45, 4.45, 5.35, 5.35, 5.59, 5.86, 5.86, 6.03, 6.67, 6.8, 7.2, 7.51, 7.74, 7.87, 7.97, 8.03, 8.05, 8.05, 8.05, 8.05, 8.49, 8.47, 8.47, 8.86, 8.77, 9.07, 8.72, 8.4, 6.8, 4.84, 4.8, 4.66, 4.85, 3.51, 4.66, 4.46, 4.46, 5.16, 7.11, 7.21, 7.35, 7.68, 8.01, 10.47, 7.93, 0.0, 0.63, 2.91, 3.78, 2.48, 1.13, 1.13, 0.53, -0.95, -2.24, -2.68, -2.68, -2.68, 0.0, 0.0, 0.0, 0.0, 0.0, -0.57, 0.0, 0.0, 0.57, 1.67, 1.84, 2.36, 2.36, 2.32, 2.32, 2.32, 2.32, 2.32, 2.32, 2.32, 1.8, 1.8, 1.8, 2.32, 2.32, 2.32, 2.32, 2.32, 2.32, 2.32, 2.32, 2.36, 2.82, 2.82, 2.82, 2.82, 3.22, 3.47, 3.84, 4.12, 4.45, 4.45, 5.06, 5.35, 5.35, 5.59, 5.59, 5.86, 6.41, 6.67, 6.8, 7.09, 7.26, 7.26, 7.4, 7.51, 7.58, 7.58, 7.58, 7.6, 8.05, 8.03, 8.47, 8.42, 8.42, 8.77, 8.48, 8.22, 7.31, 6.16, 5.34, 5.51, 5.09, 4.66, 5.34, 5.34, 4.12, 3.84, 5.75, 5.75, 6.4, 6.39, 6.42, 7.01, 8.62, 4.58, 2.53, 3.14, 5.0, 3.91, 1.27, 0.59, 0.57, 0.0, -2.6, -3.13, -3.13, -3.13, 0.0, 0.0, 0.0, 0.0, -0.56, -0.56, -0.57, 0.0, 0.57, 1.14, 1.7, 1.7, 2.36, 2.16, 2.32, 2.32, 2.32, 2.32, 1.8, 1.65, 1.65, 1.65, 1.8, 2.32, 2.32, 2.32, 2.32, 2.32, 2.32, 2.32, 2.32, 2.32, 2.82, 2.82, 2.82, 2.82, 3.47, 3.47, 3.84, 4.12, 4.12, 4.45, 4.75, 5.06, 5.06, 5.35, 5.59, 5.59, 6.41, 6.41, 6.67, 7.01, 7.01, 7.21, 6.94, 7.07, 7.07, 7.13, 7.13, 7.58, 7.6, 8.05, 8.03, 8.47, 8.42, 8.33, 8.64, 8.22, 7.31, 6.94, 6.28, 4.8, 4.8, 3.83, 4.8, 4.4, 3.45, 2.5, 2.5, 5.31, 5.75, 5.77, 4.96, 4.75, 6.35, 7.11, 6.42, 5.69, 6.23, 6.04, 3.44, 0.57, 0.0, -0.7, -2.6, -3.32, -3.32, -3.32, 0.0, 0.0, 0.0, 0.0, -0.56, -0.56, -0.57, 0.0, 0.0, 1.16, 1.16, 1.7, 1.7, 1.67, 2.32, 2.32, 1.8, 1.8, 1.65, 1.65, 1.65, 1.65, 1.65, 1.65, 2.29, 2.29, 2.29, 2.29, 2.49, 2.32, 2.32, 2.32, 2.8, 3.04, 3.04, 3.04, 3.47, 3.47, 3.47, 4.12, 4.12, 4.12, 4.45, 4.75, 4.75, 5.06, 5.06, 5.59, 5.59, 6.23, 6.41, 6.8, 7.01, 6.6, 6.79, 6.94, 7.06, 6.61, 7.06, 7.07, 7.58, 7.6, 8.05, 8.03, 8.42, 8.33, 8.17, 8.0, 7.31, 7.01, 5.6, 4.8, 4.22, 2.86, 2.5, 2.86, 2.8, 2.8, 2.91, 3.13, 5.59, 5.06, 4.96, 4.87, 6.4, 6.79, 6.79, 6.64, 7.55, 7.6, 6.14, 1.98, -0.61, -1.9, -2.68, -3.07, -3.07, -3.07, 0.0, 0.0, 0.0, -0.56, -0.56, -0.56, -0.57, -0.58, 0.0, 0.53, 1.16, 1.16, 1.7, 1.67, 1.8, 1.8, 1.65, 1.76, 1.76, 1.76, 1.76, 1.76, 1.76, 1.76, 2.29, 2.29, 2.29, 2.29, 2.29, 2.29, 2.29, 2.49, 2.8, 2.8, 2.8, 2.8, 3.22, 3.47, 3.47, 3.72, 4.12, 4.12, 4.12, 4.47, 4.75, 4.75, 5.06, 5.06, 5.35, 5.59, 5.86, 6.28, 6.28, 6.51, 6.72, 6.3, 6.47, 6.47, 6.47, 7.06, 7.07, 7.58, 8.05, 8.05, 8.03, 8.42, 8.3, 8.17, 7.51, 6.6, 6.23, 5.2, 4.15, 3.72, 2.4, 2.5, 2.91, 3.32, 3.32, 3.51, 4.85, 5.46, 5.59, 6.2, 7.13, 7.93, 7.82, 7.97, 8.22, 8.31, 7.77, 4.07, -0.57, -1.79, -2.68, -2.49, -2.49, -2.49, -0.56, -0.56, -0.59, -0.59, -0.56, -0.59, -0.56, -0.58, 0.0, 0.0, 0.59, 1.16, 1.16, 1.67, 1.8, 1.65, 1.76, 1.76, 1.76, 1.63, 1.63, 1.76, 1.76, 1.76, 2.29, 2.29, 2.29, 2.29, 2.29, 2.29, 2.29, 2.29, 2.77, 2.77, 3.0, 3.0, 3.0, 3.45, 3.45, 3.45, 3.45, 3.85, 3.85, 4.1, 4.1, 4.47, 4.47, 5.06, 5.06, 5.35, 5.86, 5.86, 5.86, 6.28, 6.1, 6.1, 6.3, 6.3, 6.3, 6.94, 7.06, 7.58, 7.6, 8.05, 8.03, 7.97, 8.3, 7.74, 7.26, 6.79, 5.81, 5.09, 4.11, 4.09, 2.4, 2.8, 2.91, 3.32, 3.74, 3.97, 3.58, 5.75, 5.69, 6.42, 7.9, 9.31, 9.17, 9.27, 9.23, 8.66, 8.72, 6.79, 0.63, -1.24, -2.4, -2.4, -2.4, -2.4, -0.56, -0.56, -0.59, -0.59, -0.56, -0.59, -0.56, -0.58, 0.0, 0.0, 0.59, 1.16, 1.16, 1.67, 1.8, 1.65, 1.76, 1.76, 1.76, 1.63, 1.63, 1.76, 1.76, 1.76, 2.29, 2.29, 2.29, 2.29, 2.29, 2.29, 2.29, 2.29, 2.77, 2.77, 3.0, 3.0, 3.0, 3.45, 3.45, 3.45, 3.45, 3.85, 3.85, 4.1, 4.1, 4.47, 4.47, 5.06, 5.06, 5.35, 5.86, 5.86, 5.86, 6.28, 6.1, 6.1, 6.3, 6.3, 6.3, 6.94, 7.06, 7.58, 7.6, 8.05, 8.03, 7.97, 8.3, 7.74, 7.26, 6.79, 5.81, 5.09, 4.11, 4.09, 2.4, 2.8, 3.32, 3.32, 3.74, 3.97, 3.58, 4.66, 5.82, 6.32, 7.18, 8.85, 9.9, 9.9, 9.56, 9.48, 9.31, 8.66, 2.5, -0.71, -1.9, -2.23, -2.23, -2.23]}]